M I D A S
Marine Information and Data Acquisition System
Tripno 1459 of the Zeeleeuw from 2008-04-16 12:02:27 to 2008-04-16 15:10:35
Back to CruiseResearch ActivitiesStationsMapUnderway DataData graphs

EquipmentUnitsComment
TimeDGPSUTC
LatitudeDGPSDM.mWGS84
LongitudeDGPSDM.mWGS84
TemperatureSBE03/SBE38deg celciusITS90
ConductivitySBE21S/mITS90
SalinitySBE21 Practical Salinity Units
ChlorophylAChelsea fluorimeterg/lCalibrated in Aceton
Missing or incorrect values are displayed as -999
Sea surface data collected by the RV Zeeleeuw from 2008-04-16 07:38:16 to 2008-04-16 15:16:52
                                                                                    Next 1000 lines
Time Latitude Longitude Temperature Conductivity Salinity ChlorophylA
2008-04-16 07:38:25 51°13.665 2°55.956 15.9506 0.008455 0.047406 -1.801521
2008-04-16 07:38:31 51°13.665 2°55.956 15.962 0.008455 0.047407 -1.801521
2008-04-16 07:38:35 51°13.665 2°55.956 15.9633 0.008455 0.047407 -1.801521
2008-04-16 07:38:41 51°13.665 2°55.956 15.9504 0.008455 0.047408 -1.801521
2008-04-16 07:38:46 51°13.665 2°55.956 15.959 0.008455 0.047408 -1.801521
2008-04-16 07:38:51 51°13.665 2°55.956 15.9614 0.008455 0.047408 -1.801521
2008-04-16 07:38:56 51°13.665 2°55.956 15.959 0.008455 0.047409 -1.801521
2008-04-16 07:39:01 51°13.664 2°55.956 15.9567 0.008455 0.047409 -1.801521
2008-04-16 07:39:05 51°13.663 2°55.956 15.959 0.008455 0.04741 -1.801521
2008-04-16 07:39:11 51°13.664 2°55.956 15.9572 0.008455 0.04741 -1.801521
2008-04-16 07:39:15 51°13.664 2°55.956 15.9536 0.008455 0.047411 -1.801521
2008-04-16 07:39:21 51°13.665 2°55.956 15.9523 0.008455 0.047411 -1.801521
2008-04-16 07:39:26 51°13.665 2°55.956 15.9532 0.008455 0.047411 -1.801521
2008-04-16 07:39:31 51°13.666 2°55.956 15.9539 0.008455 0.047412 -1.766697
2008-04-16 07:39:36 51°13.666 2°55.956 15.951 0.008455 0.047412 -1.801521
2008-04-16 07:39:41 51°13.666 2°55.956 15.9523 0.008455 0.047413 -1.801521
2008-04-16 07:39:46 51°13.666 2°55.956 15.9544 0.008455 0.047414 -1.801521
2008-04-16 07:39:51 51°13.666 2°55.956 15.9554 0.008455 0.047414 -1.801521
2008-04-16 07:39:55 51°13.666 2°55.956 15.9534 0.008455 0.047414 -1.801521
2008-04-16 07:40:01 51°13.666 2°55.956 15.9531 0.008455 0.047414 -1.801521
2008-04-16 07:40:06 51°13.665 2°55.956 15.9576 0.008455 0.047415 -1.766697
2008-04-16 07:40:11 51°13.665 2°55.956 15.9579 0.008455 0.047416 -1.801521
2008-04-16 07:40:16 51°13.665 2°55.956 15.9581 0.008455 0.047416 -1.801521
2008-04-16 07:40:21 51°13.665 2°55.956 15.9586 0.008455 0.047416 -1.801521
2008-04-16 07:40:26 51°13.665 2°55.956 15.9599 0.008455 0.047417 -1.801521
2008-04-16 07:40:30 51°13.665 2°55.956 15.9601 0.008455 0.047418 -1.801521
2008-04-16 07:40:35 51°13.665 2°55.956 15.961 0.008455 0.047418 -1.801521
2008-04-16 07:40:41 51°13.665 2°55.956 15.9618 0.008455 0.047418 -1.801521
2008-04-16 07:40:46 51°13.665 2°55.956 15.9619 0.008455 0.047419 -1.801521
2008-04-16 07:40:51 51°13.664 2°55.956 15.9611 0.008455 0.047419 -1.801521
2008-04-16 07:40:55 51°13.664 2°55.956 15.9622 0.008455 0.04742 -1.801521
2008-04-16 07:41:01 51°13.664 2°55.956 15.9625 0.008455 0.04742 -1.801521
2008-04-16 07:41:06 51°13.664 2°55.956 15.9632 0.008455 0.047421 -1.801521
2008-04-16 07:41:11 51°13.664 2°55.955 15.9633 0.008455 0.047421 -1.801521
2008-04-16 07:41:16 51°13.664 2°55.955 15.9538 0.008455 0.047422 -1.801521
2008-04-16 07:41:21 51°13.664 2°55.955 15.9419 0.008455 0.047422 -1.801521
2008-04-16 07:41:26 51°13.664 2°55.954 15.9323 0.008455 0.047423 -1.801521
2008-04-16 07:41:31 51°13.665 2°55.953 15.9409 0.008455 0.047423 -1.801521
2008-04-16 07:41:36 51°13.665 2°55.952 15.8917 0.008455 0.047424 -1.801521
2008-04-16 07:41:41 51°13.665 2°55.95 15.9337 0.008455 0.047424 -1.801521
2008-04-16 07:41:46 51°13.666 2°55.948 15.9452 0.008455 0.047425 -1.801521
2008-04-16 07:41:50 51°13.667 2°55.946 15.9526 0.008455 0.047425 -1.801521
2008-04-16 07:41:56 51°13.668 2°55.943 15.9279 0.008455 0.047425 -1.801521
2008-04-16 07:42:01 51°13.669 2°55.939 15.9478 0.008455 0.047426 -1.801521
2008-04-16 07:42:06 51°13.67 2°55.936 15.9869 0.008455 0.047426 -1.801521
2008-04-16 07:42:11 51°13.671 2°55.932 15.9581 0.008455 0.047427 -1.801521
2008-04-16 07:42:16 51°13.672 2°55.928 15.971 0.008455 0.047427 -1.801521
2008-04-16 07:42:21 51°13.674 2°55.923 15.9412 0.008455 0.047427 -1.801521
2008-04-16 07:42:26 51°13.675 2°55.918 15.9761 0.008455 0.047428 -1.801521
2008-04-16 07:42:31 51°13.676 2°55.913 15.9488 0.008455 0.047429 -1.801521
2008-04-16 07:42:36 51°13.677 2°55.907 16.006 0.008455 0.047429 -1.801521
2008-04-16 07:42:41 51°13.679 2°55.9 15.9817 0.008455 0.04743 -1.801521
2008-04-16 07:42:46 51°13.68 2°55.894 16.0094 0.008455 0.04743 -1.801521
2008-04-16 07:42:51 51°13.681 2°55.887 15.996 0.008455 0.04743 -1.801521
2008-04-16 07:42:56 51°13.682 2°55.88 16.0083 0.008455 0.047431 -1.801521
2008-04-16 07:43:01 51°13.683 2°55.872 16.0155 0.008455 0.047431 -1.801521
2008-04-16 07:43:06 51°13.683 2°55.865 16.0063 0.008455 0.047432 -1.801521
2008-04-16 07:43:11 51°13.684 2°55.858 16.0028 0.008455 0.047432 -1.801521
2008-04-16 07:43:16 51°13.685 2°55.851 15.9976 0.008455 0.047433 -1.801521
2008-04-16 07:43:21 51°13.685 2°55.844 15.9987 0.008455 0.047433 -1.801521
2008-04-16 07:43:26 51°13.686 2°55.838 15.9982 0.008455 0.047434 -1.801521
2008-04-16 07:43:31 51°13.686 2°55.831 15.9963 0.008455 0.047434 -1.801521
2008-04-16 07:43:36 51°13.686 2°55.824 15.9974 0.008455 0.047435 -1.801521
2008-04-16 07:43:41 51°13.686 2°55.817 15.9989 0.008455 0.047436 -1.801521
2008-04-16 07:43:46 51°13.687 2°55.81 16.0009 0.008455 0.047436 -1.766697
2008-04-16 07:43:51 51°13.687 2°55.803 16.0255 0.008455 0.047436 -1.766697
2008-04-16 07:43:56 51°13.687 2°55.797 16.0091 0.008455 0.047436 -1.801521
2008-04-16 07:44:01 51°13.687 2°55.79 16.0117 0.008455 0.047437 -1.801521
2008-04-16 07:44:06 51°13.687 2°55.785 16.0119 0.008455 0.047438 -1.801521
2008-04-16 07:44:11 51°13.686 2°55.779 16.0068 0.008455 0.047438 -1.801521
2008-04-16 07:44:16 51°13.686 2°55.773 16.0014 0.008455 0.047439 -1.801521
2008-04-16 07:44:21 51°13.686 2°55.769 15.9966 0.008455 0.047439 -1.801521
2008-04-16 07:44:26 51°13.686 2°55.764 15.9982 0.008455 0.047439 -1.801521
2008-04-16 07:44:31 51°13.686 2°55.76 16.0034 0.008455 0.04744 -1.801521
2008-04-16 07:44:36 51°13.686 2°55.757 16.0112 0.008455 0.04744 -1.801521
2008-04-16 07:44:41 51°13.687 2°55.754 16.0148 0.008455 0.047441 -1.801521
2008-04-16 07:44:46 51°13.687 2°55.752 16.0144 0.008455 0.047442 -1.766697
2008-04-16 07:44:51 51°13.687 2°55.75 16.0072 0.008455 0.047442 -1.766697
2008-04-16 07:44:56 51°13.687 2°55.748 16.0058 0.008455 0.047443 -1.801521
2008-04-16 07:45:01 51°13.686 2°55.747 16.0021 0.008455 0.047444 -1.801521
2008-04-16 07:45:06 51°13.687 2°55.746 15.998 0.008455 0.047444 -1.801521
2008-04-16 07:45:10 51°13.687 2°55.745 15.9974 0.008455 0.047445 -1.801521
2008-04-16 07:45:15 51°13.687 2°55.744 16.0013 0.008455 0.047445 -1.801521
2008-04-16 07:45:21 51°13.687 2°55.743 16.0041 0.008455 0.047445 -1.801521
2008-04-16 07:45:25 51°13.687 2°55.742 16.0056 0.008455 0.047446 -1.801521
2008-04-16 07:45:30 51°13.688 2°55.742 16.0072 0.008455 0.047446 -1.801521
2008-04-16 07:45:35 51°13.689 2°55.742 16.0079 0.008455 0.047447 -1.801521
2008-04-16 07:45:40 51°13.689 2°55.742 16.009 0.008455 0.047448 -1.801521
2008-04-16 07:45:45 51°13.691 2°55.742 16.0138 0.008455 0.047449 -1.801521
2008-04-16 07:45:50 51°13.692 2°55.742 16.016 0.008455 0.047449 -1.801521
2008-04-16 07:45:55 51°13.694 2°55.743 16.0203 0.008455 0.04745 -1.801521
2008-04-16 07:46:00 51°13.695 2°55.743 16.0561 0.008455 0.04745 -1.801521
2008-04-16 07:46:05 51°13.698 2°55.743 16.0961 0.008455 0.047451 -1.801521
2008-04-16 07:46:09 51°13.7 2°55.743 16.1421 0.008455 0.047451 -1.801521
2008-04-16 07:46:14 51°13.703 2°55.743 16.1599 0.008455 0.047452 -1.801521
2008-04-16 07:46:19 51°13.707 2°55.742 16.176 0.008455 0.047452 -1.801521
2008-04-16 07:46:24 51°13.711 2°55.739 16.1641 0.008352 0.046948 -1.801521
2008-04-16 07:46:29 51°13.717 2°55.737 16.1224 0.008352 0.046948 -1.801521
2008-04-16 07:46:34 51°13.722 2°55.733 16.0245 0.008455 0.047455 -1.801521
2008-04-16 07:46:39 51°13.727 2°55.728 15.9918 0.008455 0.047455 -1.801521
2008-04-16 07:46:44 51°13.732 2°55.724 15.965 0.008455 0.047455 -1.801521
2008-04-16 07:46:49 51°13.737 2°55.719 15.9586 0.008455 0.047455 -1.801521
2008-04-16 07:46:54 51°13.742 2°55.714 15.9592 0.008455 0.047455 -1.801521
2008-04-16 07:46:59 51°13.748 2°55.709 15.9445 0.008455 0.047455 -1.801521
2008-04-16 07:47:04 51°13.753 2°55.704 15.9165 0.008455 0.047456 -1.801521
2008-04-16 07:47:09 51°13.759 2°55.698 15.9036 0.008455 0.047456 -1.801521
2008-04-16 07:47:14 51°13.765 2°55.692 15.9159 0.008455 0.047456 -1.801521
2008-04-16 07:47:19 51°13.771 2°55.686 15.9116 0.008455 0.047456 -1.801521
2008-04-16 07:47:24 51°13.777 2°55.68 15.9138 0.008455 0.047457 -1.801521
2008-04-16 07:47:29 51°13.783 2°55.674 15.907 0.008455 0.047457 -1.801521
2008-04-16 07:47:34 51°13.79 2°55.668 15.9081 0.008455 0.047458 -1.801521
2008-04-16 07:47:38 51°13.796 2°55.663 15.911 0.008455 0.047458 -1.801521
2008-04-16 07:47:43 51°13.803 2°55.656 15.9088 0.008455 0.047459 -1.801521
2008-04-16 07:47:49 51°13.812 2°55.648 15.9083 0.008455 0.047459 -1.801521
2008-04-16 07:47:53 51°13.818 2°55.643 15.9045 0.008455 0.047459 -1.801521
2008-04-16 07:47:58 51°13.826 2°55.636 15.9105 0.008455 0.04746 -1.801521
2008-04-16 07:48:03 51°13.834 2°55.629 15.9088 0.008455 0.047461 -1.801521
2008-04-16 07:48:09 51°13.844 2°55.621 15.912 0.008455 0.047461 -1.801521
2008-04-16 07:48:13 51°13.85 2°55.616 15.8743 0.008455 0.047462 -1.801521
2008-04-16 07:48:18 51°13.859 2°55.609 15.8922 0.008455 0.047462 -1.801521
2008-04-16 07:48:23 51°13.868 2°55.602 15.8492 0.008455 0.047462 -1.801521
2008-04-16 07:48:29 51°13.879 2°55.595 15.8729 0.008455 0.047463 -1.801521
2008-04-16 07:48:34 51°13.889 2°55.589 15.913 0.008455 0.047463 -1.801521
2008-04-16 07:48:39 51°13.898 2°55.583 15.8645 0.008455 0.047464 -1.766697
2008-04-16 07:48:45 51°13.909 2°55.574 15.8929 0.008455 0.047465 -1.801521
2008-04-16 07:48:50 51°13.918 2°55.567 15.9651 0.008455 0.047465 -1.801521
2008-04-16 07:48:56 51°13.929 2°55.559 15.9277 0.008455 0.047465 -1.801521
2008-04-16 07:49:01 51°13.939 2°55.552 15.9703 0.008455 0.047466 -1.801521
2008-04-16 07:49:06 51°13.949 2°55.545 15.9143 0.008455 0.047467 -1.801521
2008-04-16 07:49:11 51°13.958 2°55.538 15.909 0.008455 0.047467 -1.801521
2008-04-16 07:49:16 51°13.968 2°55.531 15.8961 0.008455 0.047468 -1.801521
2008-04-16 07:49:21 51°13.977 2°55.524 15.9557 0.008455 0.047468 -1.801521
2008-04-16 07:49:26 51°13.986 2°55.517 15.9673 0.008455 0.047469 -1.801521
2008-04-16 07:49:31 51°13.995 2°55.511 15.9677 0.008455 0.047469 -1.801521
2008-04-16 07:49:36 51°14.004 2°55.504 15.9586 0.008455 0.04747 -1.766697
2008-04-16 07:49:41 51°14.013 2°55.498 15.968 0.008455 0.047471 -1.801521
2008-04-16 07:49:46 51°14.021 2°55.491 15.965 0.008455 0.047471 -1.801521
2008-04-16 07:49:51 51°14.029 2°55.485 15.9746 0.008455 0.047471 -1.801521
2008-04-16 07:49:56 51°14.037 2°55.479 15.9907 0.008455 0.047472 -1.801521
2008-04-16 07:50:01 51°14.044 2°55.473 15.9902 0.008455 0.047472 -1.801521
2008-04-16 07:50:06 51°14.051 2°55.466 15.973 0.008455 0.047473 -1.801521
2008-04-16 07:50:11 51°14.058 2°55.46 16.0051 0.008455 0.047473 -1.801521
2008-04-16 07:50:16 51°14.065 2°55.455 16.0014 0.008455 0.047474 -1.801521
2008-04-16 07:50:21 51°14.071 2°55.449 16.0201 0.008455 0.047474 -1.801521
2008-04-16 07:50:26 51°14.078 2°55.444 16.0007 0.008455 0.047474 -1.801521
2008-04-16 07:50:31 51°14.085 2°55.439 16.0175 0.008455 0.047474 -1.801521
2008-04-16 07:50:36 51°14.092 2°55.434 16.0172 0.008455 0.047475 -1.801521
2008-04-16 07:50:41 51°14.098 2°55.429 16.0342 0.008455 0.047475 -1.801521
2008-04-16 07:50:46 51°14.105 2°55.423 16.0082 0.008455 0.047476 -1.801521
2008-04-16 07:50:51 51°14.11 2°55.417 16.0514 0.008455 0.047476 -1.801521
2008-04-16 07:50:56 51°14.117 2°55.411 16.0108 0.008455 0.047476 -1.801521
2008-04-16 07:51:01 51°14.123 2°55.406 16.0294 0.008455 0.047477 -1.801521
2008-04-16 07:51:06 51°14.13 2°55.401 16.0308 0.008455 0.047477 -1.766697
2008-04-16 07:51:11 51°14.136 2°55.395 16.0429 0.008455 0.047478 -1.801521
2008-04-16 07:51:16 51°14.143 2°55.389 16.0312 0.008455 0.047478 -1.801521
2008-04-16 07:51:21 51°14.15 2°55.384 16.0301 0.008455 0.047478 -1.801521
2008-04-16 07:51:26 51°14.157 2°55.378 15.9809 0.008455 0.047479 -1.801521
2008-04-16 07:51:31 51°14.165 2°55.372 16.0212 0.008455 0.047479 -1.801521
2008-04-16 07:51:36 51°14.172 2°55.365 15.9385 0.008455 0.04748 -1.801521
2008-04-16 07:51:41 51°14.179 2°55.358 15.9958 0.008455 0.04748 -1.801521
2008-04-16 07:51:46 51°14.185 2°55.351 16.0093 0.008455 0.047481 -1.801521
2008-04-16 07:51:51 51°14.193 2°55.343 16.0066 0.008455 0.047481 -1.801521
2008-04-16 07:51:56 51°14.199 2°55.335 15.9859 0.008455 0.047481 -1.801521
2008-04-16 07:52:01 51°14.207 2°55.328 16.0077 0.008455 0.047482 -1.801521
2008-04-16 07:52:06 51°14.214 2°55.319 16.0531 0.008455 0.047483 -1.801521
2008-04-16 07:52:11 51°14.221 2°55.311 16.02 0.008455 0.047483 -1.801521
2008-04-16 07:52:16 51°14.228 2°55.302 16.018 0.008455 0.047484 -1.801521
2008-04-16 07:52:21 51°14.235 2°55.292 16.0552 0.008455 0.047484 -1.801521
2008-04-16 07:52:26 51°14.242 2°55.282 16.0079 0.008455 0.047485 -1.801521
2008-04-16 07:52:31 51°14.249 2°55.272 16.012 0.008455 0.047486 -1.801521
2008-04-16 07:52:36 51°14.256 2°55.261 16.0414 0.008455 0.047486 -1.801521
2008-04-16 07:52:41 51°14.263 2°55.25 15.9756 0.008455 0.047487 -1.801521
2008-04-16 07:52:46 51°14.269 2°55.239 15.888 0.008455 0.047488 -1.801521
2008-04-16 07:52:51 51°14.276 2°55.228 15.9954 0.008455 0.047488 -1.801521
2008-04-16 07:52:56 51°14.283 2°55.216 15.9933 0.008455 0.047488 -1.801521
2008-04-16 07:53:01 51°14.289 2°55.204 16.0032 0.008455 0.047488 -1.801521
2008-04-16 07:53:05 51°14.294 2°55.194 16.0565 0.008455 0.047489 -1.801521
2008-04-16 07:53:10 51°14.301 2°55.182 16.0215 0.008455 0.047489 -1.801521
2008-04-16 07:53:15 51°14.307 2°55.169 15.9087 0.008455 0.04749 -1.801521
2008-04-16 07:53:20 51°14.313 2°55.157 15.9136 0.008455 0.04749 -1.801521
2008-04-16 07:53:25 51°14.319 2°55.144 15.9631 0.008455 0.047491 -1.801521
2008-04-16 07:53:30 51°14.325 2°55.131 15.9841 0.008455 0.047491 -1.801521
2008-04-16 07:53:35 51°14.332 2°55.118 15.9998 0.008455 0.047492 -1.801521
2008-04-16 07:53:40 51°14.338 2°55.104 15.8552 0.008455 0.047492 -1.801521
2008-04-16 07:53:45 51°14.345 2°55.092 15.9326 0.008455 0.047493 -1.801521
2008-04-16 07:53:50 51°14.352 2°55.078 15.864 0.008455 0.047493 -1.801521
2008-04-16 07:53:54 51°14.358 2°55.068 15.8793 0.008455 0.047493 -1.801521
2008-04-16 07:54:00 51°14.367 2°55.052 15.9194 0.008455 0.047494 -1.801521
2008-04-16 07:54:05 51°14.375 2°55.04 15.909 0.008455 0.047494 -1.801521
2008-04-16 07:54:09 51°14.382 2°55.029 15.9141 0.008455 0.047495 -1.766697
2008-04-16 07:54:14 51°14.391 2°55.016 15.845 0.008455 0.047495 -1.801521
2008-04-16 07:54:19 51°14.399 2°55.002 15.8985 0.008455 0.047495 -1.801521
2008-04-16 07:54:24 51°14.408 2°54.987 15.8313 0.008455 0.047496 -1.801521
2008-04-16 07:54:29 51°14.417 2°54.972 15.9124 0.008455 0.047498 -1.801521
2008-04-16 07:54:34 51°14.426 2°54.956 15.8987 0.008455 0.047498 -1.801521
2008-04-16 07:54:39 51°14.435 2°54.94 15.8975 0.008455 0.047499 -1.801521
2008-04-16 07:54:44 51°14.444 2°54.923 15.9229 0.008352 0.046994 -1.801521
2008-04-16 07:54:49 51°14.454 2°54.905 15.9313 0.008352 0.046994 -1.801521
2008-04-16 07:54:54 51°14.464 2°54.886 15.8097 0.008455 0.0475 -1.801521
2008-04-16 07:54:58 51°14.471 2°54.87 15.806 0.008352 0.046996 -1.801521
2008-04-16 07:55:03 51°14.481 2°54.85 15.8851 0.008455 0.047502 -1.766697
2008-04-16 07:55:09 51°14.492 2°54.825 15.7219 0.008455 0.047503 -1.766697
2008-04-16 07:55:13 51°14.499 2°54.808 15.6955 0.008455 0.047504 -1.801521
2008-04-16 07:55:18 51°14.509 2°54.787 15.4346 0.008455 0.047504 -1.801521
2008-04-16 07:55:23 51°14.518 2°54.766 15.4749 0.008455 0.047504 -1.801521
2008-04-16 07:55:28 51°14.528 2°54.744 15.5724 0.008455 0.047505 -1.801521
2008-04-16 07:55:33 51°14.539 2°54.724 15.6224 0.008455 0.047505 -1.801521
2008-04-16 07:55:38 51°14.549 2°54.703 15.594 0.008455 0.047506 -1.801521
2008-04-16 07:55:43 51°14.559 2°54.681 15.624 0.008455 0.047507 -1.801521
2008-04-16 07:55:48 51°14.57 2°54.661 15.5717 0.008455 0.047507 -1.801521
2008-04-16 07:55:53 51°14.581 2°54.64 15.6147 0.008455 0.047507 -1.801521
2008-04-16 07:55:58 51°14.592 2°54.619 15.6099 0.008455 0.047508 -1.801521
2008-04-16 07:56:02 51°14.6 2°54.603 15.645 0.008455 0.047509 -1.766697
2008-04-16 07:56:08 51°14.613 2°54.578 15.6353 0.008455 0.047509 -1.801521
2008-04-16 07:56:13 51°14.624 2°54.558 15.6687 0.008455 0.04751 -1.801521
2008-04-16 07:56:17 51°14.633 2°54.541 15.6093 0.008455 0.04751 -1.801521
2008-04-16 07:56:22 51°14.643 2°54.519 15.6319 0.008455 0.047511 -1.801521
2008-04-16 07:56:28 51°14.655 2°54.494 15.6072 0.008455 0.047512 -1.801521
2008-04-16 07:56:33 51°14.666 2°54.472 15.5957 0.008455 0.047512 -1.801521
2008-04-16 07:56:37 51°14.674 2°54.456 15.6123 0.008455 0.047512 -1.801521
2008-04-16 07:56:43 51°14.688 2°54.431 15.6478 0.008455 0.047513 -1.801521
2008-04-16 07:56:48 51°14.698 2°54.41 15.6726 0.008455 0.047513 -1.801521
2008-04-16 07:56:53 51°14.709 2°54.388 15.6875 0.008455 0.047514 -1.801521
2008-04-16 07:56:57 51°14.716 2°54.371 15.6935 0.008455 0.047515 -1.801521
2008-04-16 07:57:02 51°14.725 2°54.348 15.6557 0.008455 0.047516 -1.801521
2008-04-16 07:57:07 51°14.733 2°54.325 15.6233 0.008455 0.047516 -1.801521
2008-04-16 07:57:12 51°14.741 2°54.301 15.6275 0.008455 0.047516 -1.801521
2008-04-16 07:57:18 51°14.75 2°54.273 15.6718 0.008455 0.047516 -1.801521
2008-04-16 07:57:23 51°14.757 2°54.248 15.6645 0.008455 0.047517 -1.801521
2008-04-16 07:57:28 51°14.763 2°54.224 15.6618 0.008455 0.047518 -1.801521
2008-04-16 07:57:33 51°14.769 2°54.199 15.6646 0.008455 0.047518 -1.801521
2008-04-16 07:57:37 51°14.774 2°54.179 15.6855 0.008455 0.047518 -1.801521
2008-04-16 07:57:42 51°14.779 2°54.154 15.6579 0.008455 0.047519 -1.801521
2008-04-16 07:57:47 51°14.783 2°54.129 15.6468 0.008455 0.047519 -1.801521
2008-04-16 07:57:52 51°14.787 2°54.104 15.6485 0.008455 0.047519 -1.801521
2008-04-16 07:57:57 51°14.791 2°54.078 15.656 0.008455 0.04752 -1.801521
2008-04-16 07:58:02 51°14.795 2°54.052 15.6557 0.008455 0.04752 -1.801521
2008-04-16 07:58:08 51°14.8 2°54.021 15.6361 0.008455 0.04752 -1.801521
2008-04-16 07:58:13 51°14.804 2°53.996 15.6407 0.008455 0.04752 -1.801521
2008-04-16 07:58:17 51°14.808 2°53.975 15.6519 0.008455 0.04752 -1.801521
2008-04-16 07:58:22 51°14.811 2°53.949 15.6647 0.008455 0.047521 -1.801521
2008-04-16 07:58:28 51°14.816 2°53.919 15.6513 0.008455 0.047522 -1.801521
2008-04-16 07:58:33 51°14.82 2°53.893 15.662 0.008455 0.047522 -1.801521
2008-04-16 07:58:37 51°14.822 2°53.872 15.6601 0.008455 0.047522 -1.801521
2008-04-16 07:58:42 51°14.826 2°53.846 15.6708 0.008455 0.047523 -1.801521
2008-04-16 07:58:48 51°14.83 2°53.815 15.6454 0.008455 0.047523 -1.801521
2008-04-16 07:58:53 51°14.834 2°53.789 15.6678 0.008455 0.047524 -1.801521
2008-04-16 07:58:57 51°14.836 2°53.768 15.6718 0.008455 0.047524 -1.801521
2008-04-16 07:59:02 51°14.84 2°53.742 15.6393 0.008455 0.047525 -1.801521
2008-04-16 07:59:08 51°14.844 2°53.711 15.646 0.008455 0.047526 -1.801521
2008-04-16 07:59:13 51°14.846 2°53.685 15.6634 0.008455 0.047527 -1.766697
2008-04-16 07:59:17 51°14.848 2°53.664 15.6584 0.008455 0.047527 -1.766697
2008-04-16 07:59:22 51°14.85 2°53.638 15.6403 0.008455 0.047527 -1.801521
2008-04-16 07:59:28 51°14.853 2°53.606 15.64 0.008455 0.047527 -1.801521
2008-04-16 07:59:33 51°14.856 2°53.58 15.6501 0.008455 0.047528 -1.801521
2008-04-16 07:59:37 51°14.858 2°53.559 15.6676 0.008455 0.047528 -1.801521
2008-04-16 07:59:42 51°14.861 2°53.533 15.6598 0.008455 0.047528 -1.801521
2008-04-16 07:59:48 51°14.865 2°53.502 15.6708 0.008455 0.047528 -1.801521
2008-04-16 07:59:53 51°14.868 2°53.475 15.6205 0.008455 0.047529 -1.801521
2008-04-16 07:59:57 51°14.87 2°53.455 15.6522 0.008455 0.04753 -1.801521
2008-04-16 08:00:02 51°14.873 2°53.429 15.648 0.008455 0.04753 -1.766697
2008-04-16 08:00:08 51°14.878 2°53.397 15.6483 0.008455 0.047531 -1.801521
2008-04-16 08:00:13 51°14.881 2°53.372 15.6802 0.008455 0.047532 -1.801521
2008-04-16 08:00:17 51°14.884 2°53.351 15.6676 0.008455 0.047532 -1.801521
2008-04-16 08:00:22 51°14.887 2°53.325 15.6803 0.008558 0.048039 -1.801521
2008-04-16 08:00:27 51°14.89 2°53.299 15.696 0.008455 0.047533 -1.801521
2008-04-16 08:00:32 51°14.893 2°53.273 15.675 0.008455 0.047534 -1.766697
2008-04-16 08:00:37 51°14.894 2°53.247 15.7009 0.008455 0.047535 -1.801521
2008-04-16 08:00:42 51°14.895 2°53.22 15.7045 0.008455 0.047535 -1.801521
2008-04-16 08:00:47 51°14.895 2°53.194 15.7035 0.008455 0.047535 -1.801521
2008-04-16 08:00:52 51°14.895 2°53.168 15.6882 0.008455 0.047536 -1.801521
2008-04-16 08:00:57 51°14.894 2°53.142 15.6752 0.008455 0.047536 -1.801521
2008-04-16 08:01:03 51°14.892 2°53.111 15.6995 0.008455 0.047537 -1.801521
2008-04-16 08:01:08 51°14.89 2°53.085 15.7082 0.008455 0.047538 -1.801521
2008-04-16 08:01:13 51°14.888 2°53.059 15.6341 0.008455 0.047538 -1.801521
2008-04-16 08:01:17 51°14.886 2°53.038 15.6797 0.008455 0.047538 -1.801521
2008-04-16 08:01:22 51°14.884 2°53.012 15.6768 0.008455 0.047538 -1.801521
2008-04-16 08:01:28 51°14.882 2°52.98 15.6783 0.008455 0.047538 -1.801521
2008-04-16 08:01:32 51°14.881 2°52.959 15.619 0.008455 0.047538 -1.801521
2008-04-16 08:01:37 51°14.881 2°52.933 15.6557 0.008455 0.047538 -1.801521
2008-04-16 08:01:41 51°14.882 2°52.912 15.656 0.008455 0.04754 -1.801521
2008-04-16 08:01:47 51°14.883 2°52.88 15.6534 0.008455 0.04754 -1.801521
2008-04-16 08:01:52 51°14.885 2°52.854 15.6316 0.008455 0.04754 -1.801521
2008-04-16 08:01:56 51°14.886 2°52.832 15.6179 0.008455 0.047541 -1.801521
2008-04-16 08:02:01 51°14.888 2°52.806 15.6482 0.008455 0.047541 -1.801521
2008-04-16 08:02:06 51°14.89 2°52.78 15.6678 0.008455 0.047542 -1.801521
2008-04-16 08:02:12 51°14.892 2°52.748 15.646 0.008455 0.047543 -1.801521
2008-04-16 08:02:17 51°14.893 2°52.722 15.6272 0.008455 0.047543 -1.801521
2008-04-16 08:02:21 51°14.895 2°52.701 15.6461 0.008455 0.047544 -1.801521
2008-04-16 08:02:26 51°14.896 2°52.674 15.6601 0.008455 0.047545 -1.801521
2008-04-16 08:02:31 51°14.898 2°52.647 15.6671 0.008455 0.047545 -1.801521
2008-04-16 08:02:37 51°14.899 2°52.616 15.6647 0.008455 0.047546 -1.801521
2008-04-16 08:02:41 51°14.9 2°52.595 15.6708 0.008455 0.047547 -1.801521
2008-04-16 08:02:47 51°14.902 2°52.563 15.6444 0.008455 0.047547 -1.801521
2008-04-16 08:02:52 51°14.903 2°52.536 15.6557 0.008455 0.047547 -1.801521
2008-04-16 08:02:56 51°14.904 2°52.515 15.6754 0.008455 0.047548 -1.801521
2008-04-16 08:03:01 51°14.906 2°52.489 15.6708 0.008455 0.047549 -1.801521
2008-04-16 08:03:07 51°14.907 2°52.457 15.6813 0.008455 0.047549 -1.766697
2008-04-16 08:03:12 51°14.909 2°52.431 15.6434 0.008455 0.04755 -1.801521
2008-04-16 08:03:16 51°14.909 2°52.41 15.656 0.008455 0.04755 -1.801521
2008-04-16 08:03:21 51°14.91 2°52.383 15.6661 0.008455 0.047551 -1.801521
2008-04-16 08:03:27 51°14.91 2°52.351 15.6796 0.008455 0.047551 -1.801521
2008-04-16 08:03:32 51°14.911 2°52.325 15.6779 0.008455 0.047551 -1.801521
2008-04-16 08:03:36 51°14.911 2°52.304 15.6761 0.008455 0.047552 -1.801521
2008-04-16 08:03:41 51°14.912 2°52.277 15.6665 0.008455 0.047552 -1.801521
2008-04-16 08:03:47 51°14.913 2°52.245 15.6634 0.008455 0.047552 -1.801521
2008-04-16 08:03:52 51°14.913 2°52.219 15.6627 0.008455 0.047552 -1.801521
2008-04-16 08:03:56 51°14.914 2°52.198 15.6551 0.008455 0.047552 -1.801521
2008-04-16 08:04:01 51°14.914 2°52.171 15.6608 0.008455 0.047554 -1.801521
2008-04-16 08:04:07 51°14.914 2°52.139 15.6892 0.008455 0.047554 -1.801521
2008-04-16 08:04:12 51°14.914 2°52.113 15.6747 0.008455 0.047554 -1.801521
2008-04-16 08:04:16 51°14.914 2°52.092 15.6752 0.008455 0.047554 -1.801521
2008-04-16 08:04:21 51°14.915 2°52.065 15.656 0.008455 0.047555 -1.766697
2008-04-16 08:04:26 51°14.915 2°52.038 15.6978 0.008455 0.047555 -1.801521
2008-04-16 08:04:32 51°14.915 2°52.007 15.6927 0.008455 0.047556 -1.801521
2008-04-16 08:04:36 51°14.915 2°51.985 15.6827 0.008455 0.047557 -1.801521
2008-04-16 08:04:41 51°14.915 2°51.959 15.7032 0.008455 0.047558 -1.801521
2008-04-16 08:04:47 51°14.915 2°51.927 15.6817 0.008455 0.047558 -1.801521
2008-04-16 08:04:51 51°14.914 2°51.906 15.695 0.008455 0.047559 -1.801521
2008-04-16 08:04:56 51°14.914 2°51.879 15.6597 0.008455 0.04756 -1.801521
2008-04-16 08:05:01 51°14.913 2°51.853 15.6729 0.008455 0.04756 -1.801521
2008-04-16 08:05:07 51°14.912 2°51.821 15.6991 0.008455 0.047562 -1.801521
2008-04-16 08:05:12 51°14.91 2°51.795 15.688 0.008455 0.047562 -1.801521
2008-04-16 08:05:17 51°14.908 2°51.769 15.7174 0.008455 0.047562 -1.801521
2008-04-16 08:05:21 51°14.906 2°51.749 15.716 0.008455 0.047563 -1.801521
2008-04-16 08:05:27 51°14.902 2°51.718 15.7095 0.008455 0.047564 -1.801521
2008-04-16 08:05:32 51°14.898 2°51.692 15.669 0.008455 0.047564 -1.801521
2008-04-16 08:05:36 51°14.895 2°51.671 15.6953 0.008455 0.047565 -1.801521
2008-04-16 08:05:41 51°14.892 2°51.646 15.6873 0.008558 0.048072 -1.801521
2008-04-16 08:05:47 51°14.887 2°51.615 15.6672 0.008558 0.048072 -1.801521
2008-04-16 08:05:52 51°14.883 2°51.59 15.7022 0.008455 0.047566 -1.801521
2008-04-16 08:05:56 51°14.881 2°51.569 15.6922 0.008455 0.047567 -1.801521
2008-04-16 08:06:01 51°14.877 2°51.543 15.712 0.008455 0.047568 -1.801521
2008-04-16 08:06:07 51°14.873 2°51.512 15.712 0.008455 0.047568 -1.801521
2008-04-16 08:06:12 51°14.87 2°51.486 15.6695 0.008455 0.047569 -1.801521
2008-04-16 08:06:16 51°14.866 2°51.466 15.7289 0.008455 0.047569 -1.801521
2008-04-16 08:06:21 51°14.864 2°51.44 15.7166 0.008455 0.04757 -1.801521
2008-04-16 08:06:26 51°14.86 2°51.414 15.7224 0.008455 0.047571 -1.801521
2008-04-16 08:06:32 51°14.856 2°51.384 15.6983 0.008455 0.047571 -1.801521
2008-04-16 08:06:36 51°14.853 2°51.363 15.6857 0.008455 0.047572 -1.801521
2008-04-16 08:06:41 51°14.85 2°51.337 15.6824 0.008558 0.04808 -1.801521
2008-04-16 08:06:46 51°14.846 2°51.312 15.7304 0.008558 0.04808 -1.801521
2008-04-16 08:06:51 51°14.843 2°51.286 15.7222 0.008455 0.047573 -1.801521
2008-04-16 08:06:56 51°14.839 2°51.26 15.7223 0.008455 0.047573 -1.801521
2008-04-16 08:07:01 51°14.836 2°51.234 15.7112 0.008455 0.047574 -1.801521
2008-04-16 08:07:07 51°14.831 2°51.204 15.7383 0.008455 0.047574 -1.801521
2008-04-16 08:07:12 51°14.827 2°51.178 15.7127 0.008455 0.047576 -1.801521
2008-04-16 08:07:17 51°14.822 2°51.154 15.7313 0.008455 0.047576 -1.801521
2008-04-16 08:07:21 51°14.819 2°51.134 15.7148 0.008455 0.047576 -1.801521
2008-04-16 08:07:27 51°14.812 2°51.104 15.7045 0.008455 0.047577 -1.801521
2008-04-16 08:07:31 51°14.808 2°51.084 15.7029 0.008455 0.047577 -1.801521
2008-04-16 08:07:37 51°14.802 2°51.054 15.838 0.008558 0.048084 -1.801521
2008-04-16 08:07:41 51°14.799 2°51.034 16.3616 0.008455 0.047578 -1.801521
2008-04-16 08:07:46 51°14.795 2°51.009 16.4168 0.008455 0.047578 -1.801521
2008-04-16 08:07:51 51°14.79 2°50.985 16.2784 0.008455 0.047578 -1.801521
2008-04-16 08:07:56 51°14.783 2°50.961 15.981 0.008455 0.047579 -1.801521
2008-04-16 08:08:01 51°14.777 2°50.937 16.5635 0.008455 0.047579 -1.766697
2008-04-16 08:08:07 51°14.769 2°50.908 16.4049 0.008455 0.047579 -1.801521
2008-04-16 08:08:12 51°14.763 2°50.884 16.0388 0.008455 0.04758 -1.801521
2008-04-16 08:08:16 51°14.758 2°50.865 16.1531 0.008455 0.04758 -1.801521
2008-04-16 08:08:21 51°14.752 2°50.841 15.9994 0.008455 0.047581 -1.801521
2008-04-16 08:08:26 51°14.746 2°50.817 16.1153 0.008455 0.047582 -1.801521
2008-04-16 08:08:32 51°14.736 2°50.79 15.8881 0.008455 0.047583 -1.801521
2008-04-16 08:08:37 51°14.729 2°50.769 15.8809 0.008558 0.048094 -1.731873
2008-04-16 08:08:41 51°14.721 2°50.756 15.8487 0.008455 0.047586 -1.766697
2008-04-16 08:08:46 51°14.713 2°50.741 15.9086 0.008455 0.047586 -1.766697
2008-04-16 08:08:52 51°14.703 2°50.726 15.8733 0.008558 0.048094 -1.766697
2008-04-16 08:08:56 51°14.697 2°50.717 15.9058 0.008455 0.047587 -1.766697
2008-04-16 08:09:01 51°14.688 2°50.707 15.8953 0.008558 0.048094 -1.766697
2008-04-16 08:09:07 51°14.68 2°50.696 15.8939 0.008455 0.047587 -1.766697
2008-04-16 08:09:12 51°14.672 2°50.688 15.9145 0.008558 0.048094 -1.766697
2008-04-16 08:09:16 51°14.667 2°50.682 15.9015 0.008558 0.048094 -1.766697
2008-04-16 08:09:21 51°14.66 2°50.675 15.9075 0.008558 0.048094 -1.766697
2008-04-16 08:09:27 51°14.652 2°50.668 15.9144 0.008455 0.047587 -1.801521
2008-04-16 08:09:32 51°14.646 2°50.664 15.9108 0.008455 0.047587 -1.801521
2008-04-16 08:09:37 51°14.64 2°50.659 15.9168 0.008455 0.047587 -1.766697
2008-04-16 08:09:41 51°14.636 2°50.655 15.9158 0.008455 0.047588 -1.766697
2008-04-16 08:09:47 51°14.63 2°50.649 15.9251 0.008455 0.047588 -1.766697
2008-04-16 08:09:52 51°14.624 2°50.645 15.9127 0.008455 0.047587 -1.766697
2008-04-16 08:09:56 51°14.621 2°50.641 15.9242 0.008455 0.047588 -1.766697
2008-04-16 08:10:01 51°14.616 2°50.637 15.9273 0.008455 0.047588 -1.801521
2008-04-16 08:10:06 51°14.612 2°50.632 15.9332 0.008455 0.047588 -1.801521
2008-04-16 08:10:11 51°14.608 2°50.627 15.9244 0.008455 0.047588 -1.766697
2008-04-16 08:10:16 51°14.604 2°50.622 15.9505 0.008455 0.047588 -1.766697
2008-04-16 08:10:22 51°14.6 2°50.616 15.9279 0.008455 0.047589 -1.801521
2008-04-16 08:10:27 51°14.598 2°50.61 15.9224 0.008558 0.048098 -1.766697
2008-04-16 08:10:32 51°14.595 2°50.604 15.9235 0.008455 0.04759 -1.766697
2008-04-16 08:10:36 51°14.593 2°50.6 15.9272 0.008455 0.047591 -1.801521
2008-04-16 08:10:41 51°14.591 2°50.595 15.9423 0.008455 0.047593 -1.801521
2008-04-16 08:10:47 51°14.588 2°50.588 15.9328 0.008455 0.047593 -1.801521
2008-04-16 08:10:52 51°14.587 2°50.583 15.9284 0.008455 0.047593 -1.766697
2008-04-16 08:10:56 51°14.585 2°50.578 15.9257 0.008558 0.048102 -1.766697
2008-04-16 08:11:01 51°14.583 2°50.573 15.939 0.008455 0.047595 -1.766697
2008-04-16 08:11:06 51°14.581 2°50.568 15.93 0.008455 0.047596 -1.766697
2008-04-16 08:11:12 51°14.579 2°50.561 15.944 0.008455 0.047597 -1.766697
2008-04-16 08:11:17 51°14.577 2°50.555 15.936 0.008455 0.047597 -1.766697
2008-04-16 08:11:21 51°14.576 2°50.551 15.9592 0.008455 0.047598 -1.801521
2008-04-16 08:11:26 51°14.574 2°50.546 15.9501 0.008455 0.047599 -1.801521
2008-04-16 08:11:31 51°14.572 2°50.54 15.9791 0.008455 0.047601 -1.801521
2008-04-16 08:11:37 51°14.57 2°50.534 15.938 0.008455 0.047601 -1.766697
2008-04-16 08:11:41 51°14.568 2°50.53 15.9524 0.008455 0.047602 -1.766697
2008-04-16 08:11:46 51°14.566 2°50.525 15.9544 0.008455 0.047602 -1.766697
2008-04-16 08:11:51 51°14.565 2°50.519 15.958 0.008455 0.047602 -1.801521
2008-04-16 08:11:57 51°14.562 2°50.514 15.9462 0.008455 0.047602 -1.766697
2008-04-16 08:12:01 51°14.561 2°50.509 15.9682 0.008455 0.047603 -1.766697
2008-04-16 08:12:06 51°14.559 2°50.504 15.9615 0.008455 0.047604 -1.801521
2008-04-16 08:12:12 51°14.557 2°50.498 15.9635 0.008455 0.047604 -1.801521
2008-04-16 08:12:16 51°14.555 2°50.493 15.9617 0.008455 0.047604 -1.801521
2008-04-16 08:12:21 51°14.553 2°50.488 15.9541 0.008455 0.047604 -1.801521
2008-04-16 08:12:27 51°14.551 2°50.483 15.9605 0.008455 0.047605 -1.766697
2008-04-16 08:12:31 51°14.549 2°50.478 15.9541 0.008455 0.047605 -1.801521
2008-04-16 08:12:36 51°14.547 2°50.473 15.9697 0.008455 0.047606 -1.766697
2008-04-16 08:12:41 51°14.546 2°50.468 15.9518 0.008455 0.047606 -1.801521
2008-04-16 08:12:47 51°14.544 2°50.461 15.9564 0.008455 0.047606 -1.801521
2008-04-16 08:12:52 51°14.542 2°50.456 15.9562 0.008455 0.047606 -1.766697
2008-04-16 08:12:56 51°14.541 2°50.452 15.9689 0.008455 0.047607 -1.801521
2008-04-16 08:13:01 51°14.539 2°50.446 15.9716 0.008455 0.047608 -1.766697
2008-04-16 08:13:07 51°14.537 2°50.44 15.9745 0.008455 0.047608 -1.766697
2008-04-16 08:13:12 51°14.535 2°50.434 15.9622 0.008455 0.047609 -1.766697
2008-04-16 08:13:16 51°14.534 2°50.43 15.9617 0.008455 0.047609 -1.766697
2008-04-16 08:13:21 51°14.532 2°50.425 15.957 0.008455 0.04761 -1.766697
2008-04-16 08:13:26 51°14.53 2°50.419 15.9845 0.008455 0.047611 -1.801521
2008-04-16 08:13:32 51°14.528 2°50.413 15.9627 0.008455 0.047611 -1.766697
2008-04-16 08:13:36 51°14.527 2°50.409 15.9854 0.008455 0.047612 -1.801521
2008-04-16 08:13:41 51°14.525 2°50.404 15.9698 0.008455 0.047613 -1.766697
2008-04-16 08:13:47 51°14.523 2°50.397 15.9815 0.008455 0.047613 -1.766697
2008-04-16 08:13:52 51°14.521 2°50.392 15.9747 0.008455 0.047613 -1.766697
2008-04-16 08:13:56 51°14.519 2°50.388 15.9811 0.008455 0.047614 -1.766697
2008-04-16 08:14:01 51°14.517 2°50.383 15.9796 0.008455 0.047615 -1.766697
2008-04-16 08:14:07 51°14.515 2°50.376 15.9865 0.008455 0.047615 -1.766697
2008-04-16 08:14:11 51°14.513 2°50.372 15.9746 0.008455 0.047616 -1.801521
2008-04-16 08:14:16 51°14.511 2°50.367 15.9939 0.008455 0.047616 -1.766697
2008-04-16 08:14:21 51°14.508 2°50.361 15.9708 0.008455 0.047616 -1.766697
2008-04-16 08:14:26 51°14.506 2°50.355 16.0132 0.008455 0.047617 -1.766697
2008-04-16 08:14:31 51°14.504 2°50.35 15.9911 0.008455 0.047618 -1.801521
2008-04-16 08:14:36 51°14.502 2°50.344 16.0219 0.008455 0.047619 -1.766697
2008-04-16 08:14:41 51°14.499 2°50.338 15.99 0.008455 0.04762 -1.801521
2008-04-16 08:14:47 51°14.496 2°50.331 16.0034 0.008455 0.04762 -1.801521
2008-04-16 08:14:52 51°14.494 2°50.325 16.0114 0.008455 0.04762 -1.766697
2008-04-16 08:14:56 51°14.492 2°50.32 16.0059 0.008455 0.047621 -1.766697
2008-04-16 08:15:01 51°14.49 2°50.314 16.0036 0.008455 0.047622 -1.801521
2008-04-16 08:15:07 51°14.488 2°50.306 16.0033 0.008455 0.047623 -1.801521
2008-04-16 08:15:12 51°14.486 2°50.299 16.0089 0.008455 0.047623 -1.766697
2008-04-16 08:15:16 51°14.484 2°50.294 16.0118 0.008455 0.047623 -1.766697
2008-04-16 08:15:21 51°14.483 2°50.287 16.0309 0.008455 0.047624 -1.766697
2008-04-16 08:15:27 51°14.481 2°50.279 16.0056 0.008455 0.047624 -1.801521
2008-04-16 08:15:32 51°14.479 2°50.272 16.0146 0.008455 0.047625 -1.766697
2008-04-16 08:15:36 51°14.478 2°50.266 16.0137 0.008455 0.047626 -1.766697
2008-04-16 08:15:41 51°14.476 2°50.259 16.0384 0.008455 0.047627 -1.766697
2008-04-16 08:15:47 51°14.474 2°50.251 16.0255 0.008455 0.047627 -1.766697
2008-04-16 08:15:52 51°14.472 2°50.244 16.0237 0.008455 0.047627 -1.766697
2008-04-16 08:15:56 51°14.471 2°50.238 16.0168 0.008455 0.047628 -1.766697
2008-04-16 08:16:01 51°14.469 2°50.231 16.1797 0.008455 0.047629 -1.766697
2008-04-16 08:16:06 51°14.467 2°50.225 16.0514 0.008455 0.047629 -1.766697
2008-04-16 08:16:11 51°14.466 2°50.218 16.0224 0.008455 0.04763 -1.801521
2008-04-16 08:16:16 51°14.464 2°50.211 16.0235 0.008455 0.04763 -1.766697
2008-04-16 08:16:21 51°14.462 2°50.204 16.0237 0.008455 0.04763 -1.766697
2008-04-16 08:16:26 51°14.461 2°50.198 16.0294 0.008455 0.047631 -1.766697
2008-04-16 08:16:31 51°14.459 2°50.191 16.0329 0.008455 0.047631 -1.766697
2008-04-16 08:16:37 51°14.457 2°50.183 16.0319 0.008455 0.047632 -1.801521
2008-04-16 08:16:41 51°14.456 2°50.178 16.0312 0.008455 0.047633 -1.766697
2008-04-16 08:16:47 51°14.454 2°50.17 16.0319 0.008455 0.047633 -1.766697
2008-04-16 08:16:52 51°14.452 2°50.163 16.0339 0.008455 0.047633 -1.766697
2008-04-16 08:16:56 51°14.451 2°50.158 16.0409 0.008455 0.047634 -1.766697
2008-04-16 08:17:01 51°14.449 2°50.152 16.0417 0.008455 0.047636 -1.801521
2008-04-16 08:17:07 51°14.447 2°50.144 16.0403 0.008455 0.047636 -1.766697
2008-04-16 08:17:12 51°14.446 2°50.138 16.0397 0.008455 0.047637 -1.766697
2008-04-16 08:17:17 51°14.444 2°50.132 16.0455 0.008455 0.047637 -1.766697
2008-04-16 08:17:21 51°14.443 2°50.127 16.067 0.008455 0.047638 -1.766697
2008-04-16 08:17:27 51°14.44 2°50.119 16.0349 0.008455 0.047638 -1.801521
2008-04-16 08:17:32 51°14.439 2°50.112 16.0558 0.008455 0.04764 -1.801521
2008-04-16 08:17:36 51°14.438 2°50.108 16.0398 0.008455 0.047641 -1.801521
2008-04-16 08:17:41 51°14.436 2°50.101 16.0645 0.008455 0.047641 -1.766697
2008-04-16 08:17:46 51°14.434 2°50.095 16.0423 0.008455 0.047641 -1.766697
2008-04-16 08:17:52 51°14.432 2°50.088 16.0493 0.008455 0.047643 -1.766697
2008-04-16 08:17:57 51°14.431 2°50.081 16.0493 0.008455 0.047643 -1.766697
2008-04-16 08:18:01 51°14.429 2°50.076 16.0529 0.008455 0.047644 -1.766697
2008-04-16 08:18:06 51°14.428 2°50.07 16.0769 0.008455 0.047645 -1.766697
2008-04-16 08:18:11 51°14.426 2°50.064 16.0456 0.008455 0.047645 -1.766697
2008-04-16 08:18:17 51°14.424 2°50.056 16.0582 0.008455 0.047645 -1.766697
2008-04-16 08:18:21 51°14.423 2°50.052 16.0562 0.008455 0.047646 -1.766697
2008-04-16 08:18:26 51°14.421 2°50.045 16.0692 0.008455 0.047647 -1.766697
2008-04-16 08:18:32 51°14.419 2°50.038 16.0582 0.008455 0.047647 -1.766697
2008-04-16 08:18:37 51°14.418 2°50.031 16.0719 0.008455 0.047648 -1.801521
2008-04-16 08:18:41 51°14.416 2°50.026 16.0635 0.008455 0.047649 -1.801521
2008-04-16 08:18:46 51°14.415 2°50.02 16.072 0.008455 0.047649 -1.801521
2008-04-16 08:18:51 51°14.413 2°50.014 16.0626 0.008455 0.047649 -1.801521
2008-04-16 08:18:56 51°14.412 2°50.007 16.0727 0.008455 0.04765 -1.766697
2008-04-16 08:19:01 51°14.41 2°50.001 16.0729 0.008455 0.04765 -1.801521
2008-04-16 08:19:07 51°14.408 2°49.994 16.0641 0.008455 0.047651 -1.801521
2008-04-16 08:19:12 51°14.407 2°49.987 16.0681 0.008455 0.047652 -1.766697
2008-04-16 08:19:16 51°14.405 2°49.983 16.0672 0.008455 0.047652 -1.766697
2008-04-16 08:19:21 51°14.404 2°49.976 16.0729 0.008455 0.047653 -1.801521
2008-04-16 08:19:27 51°14.402 2°49.969 16.0655 0.008455 0.047654 -1.801521
2008-04-16 08:19:32 51°14.4 2°49.963 16.0672 0.008455 0.047655 -1.766697
2008-04-16 08:19:36 51°14.399 2°49.958 16.0742 0.008455 0.047655 -1.766697
2008-04-16 08:19:41 51°14.397 2°49.951 16.0872 0.008455 0.047656 -1.801521
2008-04-16 08:19:47 51°14.396 2°49.944 16.0769 0.008455 0.047656 -1.801521
2008-04-16 08:19:52 51°14.394 2°49.937 16.0765 0.008455 0.047657 -1.766697
2008-04-16 08:19:56 51°14.393 2°49.932 16.0865 0.008455 0.047657 -1.766697
2008-04-16 08:20:01 51°14.391 2°49.926 16.0794 0.008455 0.047658 -1.766697
2008-04-16 08:20:06 51°14.39 2°49.92 16.0967 0.008455 0.047658 -1.766697
2008-04-16 08:20:12 51°14.388 2°49.913 16.0778 0.008455 0.047659 -1.766697
2008-04-16 08:20:16 51°14.387 2°49.908 16.0823 0.008455 0.047659 -1.766697
2008-04-16 08:20:21 51°14.385 2°49.902 16.0842 0.008455 0.047659 -1.766697
2008-04-16 08:20:26 51°14.384 2°49.895 16.0895 0.008455 0.04766 -1.801521
2008-04-16 08:20:32 51°14.382 2°49.888 16.0817 0.008455 0.047661 -1.766697
2008-04-16 08:20:36 51°14.381 2°49.883 16.0932 0.008455 0.047662 -1.766697
2008-04-16 08:20:41 51°14.379 2°49.877 16.0916 0.008455 0.047663 -1.766697
2008-04-16 08:20:46 51°14.378 2°49.871 16.0961 0.008455 0.047663 -1.766697
2008-04-16 08:20:51 51°14.376 2°49.865 16.088 0.008455 0.047664 -1.766697
2008-04-16 08:20:57 51°14.375 2°49.857 16.0973 0.008455 0.047664 -1.766697
2008-04-16 08:21:01 51°14.373 2°49.853 16.0945 0.008455 0.047665 -1.766697
2008-04-16 08:21:07 51°14.372 2°49.845 16.1019 0.008455 0.047666 -1.766697
2008-04-16 08:21:12 51°14.37 2°49.839 16.1126 0.008455 0.047668 -1.766697
2008-04-16 08:21:16 51°14.369 2°49.834 16.097 0.008455 0.047668 -1.766697
2008-04-16 08:21:21 51°14.367 2°49.828 16.1067 0.008455 0.047668 -1.801521
2008-04-16 08:21:26 51°14.366 2°49.822 16.0992 0.008455 0.047669 -1.801521
2008-04-16 08:21:31 51°14.364 2°49.816 16.1212 0.008455 0.04767 -1.766697
2008-04-16 08:21:37 51°14.362 2°49.809 16.1003 0.008455 0.047671 -1.766697
2008-04-16 08:21:42 51°14.361 2°49.803 16.117 0.008455 0.047671 -1.766697
2008-04-16 08:21:47 51°14.36 2°49.797 16.1083 0.008455 0.047671 -1.766697
2008-04-16 08:21:52 51°14.358 2°49.791 16.1156 0.008455 0.047673 -1.801521
2008-04-16 08:21:56 51°14.357 2°49.786 16.1066 0.008455 0.047673 -1.801521
2008-04-16 08:22:01 51°14.356 2°49.779 16.1332 0.008455 0.047674 -1.766697
2008-04-16 08:22:07 51°14.354 2°49.773 16.1147 0.008455 0.047674 -1.801521
2008-04-16 08:22:12 51°14.353 2°49.766 16.1403 0.008455 0.047675 -1.801521
2008-04-16 08:22:17 51°14.351 2°49.76 16.1172 0.008455 0.047675 -1.801521
2008-04-16 08:22:21 51°14.35 2°49.755 16.1389 0.008455 0.047676 -1.801521
2008-04-16 08:22:26 51°14.348 2°49.749 16.1181 0.008455 0.047676 -1.801521
2008-04-16 08:22:32 51°14.347 2°49.742 16.1442 0.008455 0.047677 -1.766697
2008-04-16 08:22:36 51°14.346 2°49.737 16.4112 0.008455 0.047677 -1.766697
2008-04-16 08:22:41 51°14.345 2°49.731 16.553 0.008455 0.047678 -1.801521
2008-04-16 08:22:47 51°14.343 2°49.724 16.6344 0.008455 0.047678 -1.801521
2008-04-16 08:22:52 51°14.341 2°49.718 15.8942 0.008455 0.047679 -1.766697
2008-04-16 08:22:56 51°14.34 2°49.713 15.4791 0.008455 0.047679 -1.697049
2008-04-16 08:23:01 51°14.339 2°49.707 15.544 0.008455 0.047681 -1.801521
2008-04-16 08:23:07 51°14.337 2°49.7 15.6329 0.008455 0.047681 -1.801521
2008-04-16 08:23:12 51°14.335 2°49.694 15.6602 0.008455 0.047683 -1.766697
2008-04-16 08:23:17 51°14.334 2°49.688 15.6074 0.008455 0.047683 -1.766697
2008-04-16 08:23:21 51°14.333 2°49.683 15.7102 0.008455 0.047683 -1.766697
2008-04-16 08:23:27 51°14.331 2°49.676 15.6851 0.008455 0.047684 -1.801521
2008-04-16 08:23:32 51°14.329 2°49.67 15.7321 0.008455 0.047686 -1.766697
2008-04-16 08:23:36 51°14.328 2°49.666 15.7399 0.008455 0.047686 -1.801521
2008-04-16 08:23:41 51°14.327 2°49.66 15.7752 0.008455 0.047687 -1.766697
2008-04-16 08:23:47 51°14.325 2°49.653 15.763 0.008455 0.047687 -1.766697
2008-04-16 08:23:52 51°14.323 2°49.647 15.7161 0.008455 0.047688 -1.766697
2008-04-16 08:23:56 51°14.322 2°49.642 15.7617 0.008455 0.047688 -1.766697
2008-04-16 08:24:01 51°14.321 2°49.636 15.7261 0.008455 0.047689 -1.766697
2008-04-16 08:24:07 51°14.319 2°49.629 15.7786 0.008455 0.04769 -1.766697
2008-04-16 08:24:12 51°14.318 2°49.623 15.7508 0.008455 0.047691 -1.766697
2008-04-16 08:24:16 51°14.316 2°49.618 15.7825 0.008455 0.047691 -1.766697
2008-04-16 08:24:21 51°14.315 2°49.612 15.7419 0.008455 0.047691 -1.766697
2008-04-16 08:24:27 51°14.313 2°49.605 15.7815 0.008455 0.047692 -1.801521
2008-04-16 08:24:32 51°14.312 2°49.599 15.8112 0.008455 0.047693 -1.801521
2008-04-16 08:24:37 51°14.31 2°49.594 15.7784 0.008455 0.047693 -1.766697
2008-04-16 08:24:41 51°14.309 2°49.589 15.7789 0.008455 0.047694 -1.766697
2008-04-16 08:24:46 51°14.308 2°49.583 15.7814 0.008455 0.047694 -1.766697
2008-04-16 08:24:52 51°14.306 2°49.576 15.8574 0.008455 0.047695 -1.801521
2008-04-16 08:24:57 51°14.304 2°49.57 15.7447 0.008455 0.047696 -1.801521
2008-04-16 08:25:01 51°14.304 2°49.565 15.844 0.008455 0.047697 -1.766697
2008-04-16 08:25:06 51°14.302 2°49.56 15.8628 0.008455 0.047698 -1.766697
2008-04-16 08:25:12 51°14.3 2°49.553 15.7972 0.008455 0.047699 -1.801521
2008-04-16 08:25:17 51°14.299 2°49.546 15.8065 0.008455 0.047699 -1.801521
2008-04-16 08:25:21 51°14.297 2°49.542 15.812 0.008455 0.047701 -1.801521
2008-04-16 08:25:26 51°14.296 2°49.536 15.8289 0.008455 0.047701 -1.766697
2008-04-16 08:25:31 51°14.294 2°49.53 15.787 0.008455 0.047702 -1.801521
2008-04-16 08:25:37 51°14.293 2°49.523 15.7998 0.008455 0.047703 -1.801521
2008-04-16 08:25:41 51°14.292 2°49.518 15.8076 0.008455 0.047703 -1.766697
2008-04-16 08:25:46 51°14.29 2°49.512 15.7903 0.008455 0.047703 -1.766697
2008-04-16 08:25:52 51°14.289 2°49.506 15.8146 0.008455 0.047704 -1.766697
2008-04-16 08:25:56 51°14.287 2°49.501 15.8035 0.008455 0.047705 -1.766697
2008-04-16 08:26:01 51°14.286 2°49.496 15.8441 0.008455 0.047706 -1.801521
2008-04-16 08:26:07 51°14.284 2°49.489 15.7967 0.008455 0.047706 -1.801521
2008-04-16 08:26:12 51°14.283 2°49.483 15.836 0.008455 0.047706 -1.766697
2008-04-16 08:26:16 51°14.282 2°49.478 15.8453 0.008455 0.047706 -1.766697
2008-04-16 08:26:21 51°14.28 2°49.472 15.8279 0.008455 0.047707 -1.766697
2008-04-16 08:26:27 51°14.279 2°49.465 15.8139 0.008455 0.047708 -1.766697
2008-04-16 08:26:32 51°14.277 2°49.459 15.8396 0.008455 0.047709 -1.766697
2008-04-16 08:26:36 51°14.276 2°49.455 15.8273 0.008455 0.047709 -1.766697
2008-04-16 08:26:41 51°14.275 2°49.449 15.8919 0.008455 0.04771 -1.801521
2008-04-16 08:26:47 51°14.273 2°49.442 15.8407 0.008455 0.047712 -1.766697
2008-04-16 08:26:52 51°14.272 2°49.436 15.8165 0.008455 0.047712 -1.766697
2008-04-16 08:26:56 51°14.271 2°49.431 15.8329 0.008455 0.047713 -1.766697
2008-04-16 08:27:01 51°14.269 2°49.426 15.8275 0.008455 0.047713 -1.766697
2008-04-16 08:27:06 51°14.268 2°49.42 15.8256 0.008455 0.047714 -1.801521
2008-04-16 08:27:12 51°14.266 2°49.413 15.852 0.008455 0.047715 -1.766697
2008-04-16 08:27:16 51°14.265 2°49.408 15.8165 0.008455 0.047715 -1.766697
2008-04-16 08:27:21 51°14.264 2°49.402 15.8495 0.008455 0.047716 -1.801521
2008-04-16 08:27:27 51°14.262 2°49.395 15.8719 0.008455 0.047716 -1.766697
2008-04-16 08:27:32 51°14.261 2°49.389 15.833 0.008455 0.047717 -1.766697
2008-04-16 08:27:36 51°14.26 2°49.384 15.9017 0.008455 0.047718 -1.801521
2008-04-16 08:27:41 51°14.258 2°49.378 15.8762 0.008455 0.047719 -1.801521
2008-04-16 08:27:47 51°14.257 2°49.371 15.8354 0.008455 0.047719 -1.801521
2008-04-16 08:27:52 51°14.256 2°49.365 15.8412 0.008455 0.047719 -1.766697
2008-04-16 08:27:56 51°14.255 2°49.36 15.8696 0.008455 0.04772 -1.766697
2008-04-16 08:28:01 51°14.253 2°49.354 15.8571 0.008455 0.047721 -1.766697
2008-04-16 08:28:06 51°14.252 2°49.348 15.8469 0.008455 0.047722 -1.801521
2008-04-16 08:28:11 51°14.25 2°49.342 15.8387 0.008455 0.047723 -1.766697
2008-04-16 08:28:16 51°14.249 2°49.336 15.8742 0.008455 0.047723 -1.766697
2008-04-16 08:28:22 51°14.248 2°49.329 15.8553 0.008455 0.047723 -1.766697
2008-04-16 08:28:27 51°14.246 2°49.323 15.8625 0.008455 0.047725 -1.801521
2008-04-16 08:28:32 51°14.245 2°49.317 15.8507 0.008455 0.047725 -1.766697
2008-04-16 08:28:36 51°14.244 2°49.312 15.8351 0.008455 0.047726 -1.766697
2008-04-16 08:28:41 51°14.242 2°49.306 15.8726 0.008455 0.047726 -1.766697
2008-04-16 08:28:47 51°14.241 2°49.299 15.8358 0.008455 0.047727 -1.766697
2008-04-16 08:28:52 51°14.239 2°49.293 15.862 0.008455 0.047727 -1.766697
2008-04-16 08:28:57 51°14.238 2°49.287 15.8439 0.008455 0.047728 -1.766697
2008-04-16 08:29:01 51°14.237 2°49.282 15.864 0.008455 0.047728 -1.766697
2008-04-16 08:29:06 51°14.235 2°49.276 15.8693 0.008455 0.04773 -1.766697
2008-04-16 08:29:12 51°14.233 2°49.269 15.8571 0.008455 0.04773 -1.766697
2008-04-16 08:29:16 51°14.232 2°49.264 15.8694 0.008455 0.04773 -1.766697
2008-04-16 08:29:21 51°14.231 2°49.258 15.9417 0.008455 0.04773 -1.766697
2008-04-16 08:29:26 51°14.229 2°49.253 15.8533 0.008455 0.047731 -1.766697
2008-04-16 08:29:32 51°14.228 2°49.245 15.8799 0.008455 0.047732 -1.766697
2008-04-16 08:29:37 51°14.226 2°49.239 15.8574 0.008455 0.047733 -1.801521
2008-04-16 08:29:41 51°14.225 2°49.235 15.8873 0.008455 0.047734 -1.766697
2008-04-16 08:29:46 51°14.224 2°49.229 15.8509 0.008455 0.047734 -1.766697
2008-04-16 08:29:51 51°14.223 2°49.223 15.9281 0.008455 0.047735 -1.766697
2008-04-16 08:29:57 51°14.221 2°49.216 15.8495 0.008455 0.047735 -1.766697
2008-04-16 08:30:01 51°14.22 2°49.211 15.9189 0.008455 0.047737 -1.801521
2008-04-16 08:30:07 51°14.218 2°49.204 15.854 0.008455 0.047737 -1.801521
2008-04-16 08:30:12 51°14.217 2°49.198 15.9359 0.008455 0.047739 -1.766697
2008-04-16 08:30:16 51°14.215 2°49.193 15.8611 0.008455 0.047739 -1.766697
2008-04-16 08:30:21 51°14.214 2°49.187 15.9218 0.008455 0.04774 -1.801521
2008-04-16 08:30:27 51°14.213 2°49.18 15.9088 0.008455 0.04774 -1.766697
2008-04-16 08:30:32 51°14.211 2°49.174 15.9407 0.008455 0.047741 -1.766697
2008-04-16 08:30:36 51°14.21 2°49.169 15.8784 0.008455 0.047742 -1.766697
2008-04-16 08:30:41 51°14.208 2°49.163 15.8816 0.008455 0.047743 -1.766697
2008-04-16 08:30:47 51°14.207 2°49.156 15.9137 0.008455 0.047743 -1.766697
2008-04-16 08:30:52 51°14.205 2°49.15 15.8924 0.008455 0.047744 -1.766697
2008-04-16 08:30:56 51°14.204 2°49.146 15.9156 0.008455 0.047744 -1.766697
2008-04-16 08:31:01 51°14.203 2°49.14 15.897 0.008455 0.047745 -1.766697
2008-04-16 08:31:07 51°14.201 2°49.133 15.9546 0.008455 0.047746 -1.766697
2008-04-16 08:31:12 51°14.2 2°49.127 15.9442 0.008455 0.047747 -1.766697
2008-04-16 08:31:16 51°14.199 2°49.122 15.8863 0.008455 0.047747 -1.766697
2008-04-16 08:31:21 51°14.198 2°49.116 15.915 0.008455 0.047747 -1.766697
2008-04-16 08:31:27 51°14.196 2°49.109 15.9023 0.008455 0.047748 -1.801521
2008-04-16 08:31:32 51°14.194 2°49.103 15.9328 0.008455 0.047749 -1.801521
2008-04-16 08:31:36 51°14.193 2°49.098 15.8993 0.008455 0.04775 -1.801521
2008-04-16 08:31:41 51°14.192 2°49.092 15.9184 0.008455 0.047751 -1.766697
2008-04-16 08:31:46 51°14.19 2°49.087 15.9114 0.008455 0.047751 -1.766697
2008-04-16 08:31:52 51°14.189 2°49.08 15.9113 0.008455 0.047752 -1.801521
2008-04-16 08:31:56 51°14.188 2°49.075 15.907 0.008455 0.047753 -1.801521
2008-04-16 08:32:01 51°14.186 2°49.069 15.9098 0.008455 0.047753 -1.801521
2008-04-16 08:32:07 51°14.184 2°49.062 15.9026 0.008455 0.047754 -1.766697
2008-04-16 08:32:11 51°14.183 2°49.058 15.9559 0.008455 0.047755 -1.801521
2008-04-16 08:32:17 51°14.182 2°49.051 15.9237 0.008455 0.047756 -1.766697
2008-04-16 08:32:21 51°14.181 2°49.046 15.9332 0.008455 0.047756 -1.766697
2008-04-16 08:32:26 51°14.179 2°49.04 15.9247 0.008455 0.047756 -1.766697
2008-04-16 08:32:31 51°14.178 2°49.034 15.9268 0.008455 0.047757 -1.801521
2008-04-16 08:32:36 51°14.177 2°49.028 15.9439 0.008455 0.047759 -1.801521
2008-04-16 08:32:42 51°14.175 2°49.021 15.9768 0.008455 0.047759 -1.766697
2008-04-16 08:32:47 51°14.174 2°49.015 15.9292 0.008455 0.047759 -1.766697
2008-04-16 08:32:52 51°14.172 2°49.009 15.927 0.008455 0.04776 -1.766697
2008-04-16 08:32:56 51°14.171 2°49.005 15.9424 0.008455 0.047761 -1.766697
2008-04-16 08:33:01 51°14.17 2°48.999 16.0057 0.008352 0.047251 -1.766697
2008-04-16 08:33:07 51°14.169 2°48.991 15.9323 0.008455 0.047762 -1.766697
2008-04-16 08:33:11 51°14.168 2°48.986 15.9995 0.008455 0.047762 -1.766697
2008-04-16 08:33:17 51°14.167 2°48.979 15.9268 0.008455 0.047762 -1.766697
2008-04-16 08:33:21 51°14.167 2°48.974 15.9578 0.008455 0.047764 -1.766697
2008-04-16 08:33:27 51°14.167 2°48.966 15.9261 0.008455 0.047764 -1.766697
2008-04-16 08:33:32 51°14.166 2°48.96 15.9364 0.008455 0.047765 -1.766697
2008-04-16 08:33:36 51°14.167 2°48.955 15.9789 0.008455 0.047766 -1.766697
2008-04-16 08:33:41 51°14.167 2°48.949 15.9416 0.008455 0.047767 -1.766697
2008-04-16 08:33:47 51°14.167 2°48.941 15.9386 0.008455 0.047768 -1.766697
2008-04-16 08:33:52 51°14.168 2°48.935 15.9397 0.008455 0.047768 -1.766697
2008-04-16 08:33:57 51°14.169 2°48.929 15.951 0.008455 0.047768 -1.766697
2008-04-16 08:34:01 51°14.17 2°48.924 15.958 0.008455 0.047769 -1.766697
2008-04-16 08:34:06 51°14.171 2°48.917 16.0024 0.008455 0.04777 -1.766697
2008-04-16 08:34:12 51°14.173 2°48.91 15.9833 0.008455 0.047771 -1.766697
2008-04-16 08:34:17 51°14.175 2°48.904 15.9681 0.008455 0.047771 -1.766697
2008-04-16 08:34:21 51°14.176 2°48.899 15.9734 0.008455 0.047772 -1.801521
2008-04-16 08:34:26 51°14.178 2°48.893 15.9724 0.008352 0.047261 -1.766697
2008-04-16 08:34:31 51°14.18 2°48.887 15.9581 0.008455 0.047773 -1.801521
2008-04-16 08:34:37 51°14.184 2°48.88 15.9668 0.008455 0.047774 -1.766697
2008-04-16 08:34:41 51°14.186 2°48.876 15.9695 0.008455 0.047776 -1.766697
2008-04-16 08:34:47 51°14.189 2°48.869 15.9782 0.008455 0.047776 -1.766697
2008-04-16 08:34:51 51°14.192 2°48.865 15.9928 0.008455 0.047777 -1.766697
2008-04-16 08:34:57 51°14.195 2°48.858 15.9842 0.008352 0.047266 -1.801521
2008-04-16 08:35:01 51°14.198 2°48.854 15.9698 0.008352 0.047267 -1.801521
2008-04-16 08:35:06 51°14.202 2°48.849 15.9691 0.008352 0.047268 -1.801521
2008-04-16 08:35:12 51°14.206 2°48.844 15.9819 0.008455 0.04778 -1.766697
2008-04-16 08:35:16 51°14.209 2°48.84 15.9981 0.008455 0.04778 -1.766697
2008-04-16 08:35:22 51°14.214 2°48.836 16.0261 0.008455 0.04778 -1.801521
2008-04-16 08:35:27 51°14.219 2°48.832 16.0313 0.008352 0.04727 -1.801521
2008-04-16 08:35:32 51°14.223 2°48.829 16.023 0.008352 0.04727 -1.766697
2008-04-16 08:35:36 51°14.227 2°48.827 16.0398 0.008455 0.047781 -1.766697
2008-04-16 08:35:41 51°14.232 2°48.825 16.0392 0.008455 0.047782 -1.766697
2008-04-16 08:35:47 51°14.237 2°48.824 16.0141 0.008455 0.047783 -1.801521
2008-04-16 08:35:52 51°14.242 2°48.824 16.0074 0.008455 0.047783 -1.801521
2008-04-16 08:35:57 51°14.248 2°48.824 16.0132 0.008455 0.047783 -1.766697
2008-04-16 08:36:01 51°14.252 2°48.825 16.0052 0.008352 0.047273 -1.766697
2008-04-16 08:36:06 51°14.257 2°48.827 16.0045 0.008455 0.047785 -1.801521
2008-04-16 08:36:12 51°14.263 2°48.829 16.0313 0.008455 0.047786 -1.766697
2008-04-16 08:36:16 51°14.267 2°48.831 16.0139 0.008455 0.047786 -1.766697
2008-04-16 08:36:21 51°14.272 2°48.834 16.0457 0.008455 0.047786 -1.801521
2008-04-16 08:36:27 51°14.278 2°48.838 16.0242 0.008455 0.047787 -1.766697
2008-04-16 08:36:32 51°14.282 2°48.842 15.9965 0.008455 0.047789 -1.801521
2008-04-16 08:36:36 51°14.286 2°48.845 16.0125 0.008352 0.047278 -1.766697
2008-04-16 08:36:41 51°14.29 2°48.849 16.0092 0.008352 0.047279 -1.766697
2008-04-16 08:36:47 51°14.294 2°48.854 16.0083 0.008352 0.047279 -1.766697
2008-04-16 08:36:52 51°14.298 2°48.858 16.0175 0.008455 0.047791 -1.801521
2008-04-16 08:36:57 51°14.301 2°48.862 16.0073 0.008455 0.047793 -1.766697
2008-04-16 08:37:01 51°14.304 2°48.865 16.0093 0.008455 0.047794 -1.766697
2008-04-16 08:37:07 51°14.308 2°48.87 16.0246 0.008455 0.047795 -1.766697
2008-04-16 08:37:12 51°14.311 2°48.874 15.9978 0.008455 0.047796 -1.766697
2008-04-16 08:37:16 51°14.314 2°48.876 16.0166 0.008455 0.047796 -1.766697
2008-04-16 08:37:21 51°14.317 2°48.881 16.0355 0.008455 0.047797 -1.766697
2008-04-16 08:37:27 51°14.321 2°48.885 16.0333 0.008455 0.047799 -1.801521
2008-04-16 08:37:32 51°14.323 2°48.889 16.0399 0.008455 0.0478 -1.766697
2008-04-16 08:37:36 51°14.326 2°48.891 16.0153 0.008455 0.0478 -1.766697
2008-04-16 08:37:41 51°14.328 2°48.895 16.0204 0.008455 0.047802 -1.766697
2008-04-16 08:37:47 51°14.332 2°48.9 16.0103 0.008455 0.047803 -1.766697
2008-04-16 08:37:52 51°14.335 2°48.903 16.029 0.008455 0.047803 -1.766697
2008-04-16 08:37:56 51°14.337 2°48.906 16.027 0.008455 0.047804 -1.766697
2008-04-16 08:38:01 51°14.339 2°48.909 16.033 0.008455 0.047804 -1.801521
2008-04-16 08:38:07 51°14.342 2°48.913 16.0504 0.008455 0.047805 -1.801521
2008-04-16 08:38:12 51°14.345 2°48.917 16.0204 0.008455 0.047806 -1.766697
2008-04-16 08:38:16 51°14.347 2°48.919 16.0153 0.008455 0.047806 -1.766697
2008-04-16 08:38:21 51°14.35 2°48.923 16.0325 0.008455 0.047807 -1.766697
2008-04-16 08:38:26 51°14.352 2°48.926 16.045 0.008455 0.047807 -1.801521
2008-04-16 08:38:32 51°14.355 2°48.93 16.0588 0.008455 0.047808 -1.766697
2008-04-16 08:38:37 51°14.357 2°48.933 16.0606 0.008455 0.04781 -1.801521
2008-04-16 08:38:41 51°14.359 2°48.935 16.037 0.008455 0.047811 -1.801521
2008-04-16 08:38:46 51°14.361 2°48.938 16.029 0.008455 0.047811 -1.801521
2008-04-16 08:38:52 51°14.364 2°48.942 16.0337 0.008455 0.047811 -1.766697
2008-04-16 08:38:57 51°14.367 2°48.946 16.0585 0.008455 0.047812 -1.766697
2008-04-16 08:39:01 51°14.369 2°48.948 16.0489 0.008455 0.047812 -1.766697
2008-04-16 08:39:07 51°14.372 2°48.954 16.0657 0.008352 0.047301 -1.801521
2008-04-16 08:39:12 51°14.375 2°48.958 16.0722 0.008352 0.047301 -1.766697
2008-04-16 08:39:17 51°14.379 2°48.964 16.0611 0.008455 0.047814 -1.766697
2008-04-16 08:39:21 51°14.382 2°48.97 16.0533 0.008455 0.047814 -1.766697
2008-04-16 08:39:26 51°14.386 2°48.977 16.0773 0.008455 0.047814 -1.766697
2008-04-16 08:39:32 51°14.391 2°48.986 16.0598 0.008455 0.047815 -1.801521
2008-04-16 08:39:36 51°14.394 2°48.992 16.0526 0.008352 0.047305 -1.766697
2008-04-16 08:39:42 51°14.399 2°49.002 16.0558 0.008455 0.047817 -1.766697
2008-04-16 08:39:47 51°14.403 2°49.011 16.0768 0.008455 0.047817 -1.766697
2008-04-16 08:39:52 51°14.407 2°49.02 16.0814 0.008352 0.047306 -1.801521
2008-04-16 08:39:56 51°14.411 2°49.028 16.0717 0.008352 0.047307 -1.766697
2008-04-16 08:40:01 51°14.415 2°49.039 16.0943 0.008455 0.047819 -1.766697
2008-04-16 08:40:07 51°14.421 2°49.053 16.0909 0.008455 0.047821 -1.766697
2008-04-16 08:40:12 51°14.424 2°49.064 16.0714 0.008455 0.047822 -1.766697
2008-04-16 08:40:16 51°14.427 2°49.073 16.0915 0.008455 0.047822 -1.766697
2008-04-16 08:40:21 51°14.431 2°49.083 16.1237 0.008455 0.047823 -1.766697
2008-04-16 08:40:27 51°14.435 2°49.096 16.0926 0.008455 0.047823 -1.766697
2008-04-16 08:40:32 51°14.438 2°49.106 16.0733 0.008455 0.047824 -1.766697
2008-04-16 08:40:36 51°14.44 2°49.114 16.0946 0.008455 0.047825 -1.801521
2008-04-16 08:40:41 51°14.442 2°49.124 16.0718 0.008352 0.047314 -1.801521
2008-04-16 08:40:46 51°14.445 2°49.133 16.0731 0.008352 0.047314 -1.801521
2008-04-16 08:40:52 51°14.447 2°49.143 16.0918 0.008455 0.047827 -1.766697
2008-04-16 08:40:56 51°14.449 2°49.15 16.0891 0.008455 0.047827 -1.766697
2008-04-16 08:41:01 51°14.451 2°49.159 16.0822 0.008455 0.047828 -1.801521
2008-04-16 08:41:07 51°14.454 2°49.168 16.0844 0.008455 0.047828 -1.801521
2008-04-16 08:41:12 51°14.456 2°49.176 16.1078 0.008455 0.047829 -1.801521
2008-04-16 08:41:16 51°14.458 2°49.183 16.0755 0.008455 0.04783 -1.766697
2008-04-16 08:41:21 51°14.459 2°49.19 16.0856 0.008455 0.04783 -1.766697
2008-04-16 08:41:27 51°14.462 2°49.199 16.0941 0.008455 0.04783 -1.766697
2008-04-16 08:41:32 51°14.463 2°49.207 16.1026 0.008455 0.047831 -1.766697
2008-04-16 08:41:36 51°14.465 2°49.212 16.0814 0.008455 0.047832 -1.766697
2008-04-16 08:41:41 51°14.467 2°49.219 16.1136 0.008455 0.047833 -1.801521
2008-04-16 08:41:46 51°14.469 2°49.226 16.0959 0.008455 0.047833 -1.801521
2008-04-16 08:41:51 51°14.47 2°49.232 16.1087 0.008352 0.047321 -1.766697
2008-04-16 08:41:56 51°14.472 2°49.239 16.09 0.008455 0.047834 -1.766697
2008-04-16 08:42:02 51°14.474 2°49.246 16.1132 0.008455 0.047834 -1.766697
2008-04-16 08:42:07 51°14.476 2°49.253 16.1199 0.008455 0.047835 -1.801521
2008-04-16 08:42:12 51°14.478 2°49.259 16.0892 0.008455 0.047835 -1.801521
2008-04-16 08:42:16 51°14.479 2°49.263 16.106 0.008455 0.047835 -1.801521
2008-04-16 08:42:22 51°14.481 2°49.27 16.1239 0.008455 0.047836 -1.766697
2008-04-16 08:42:27 51°14.483 2°49.276 16.1072 0.008455 0.047837 -1.801521
2008-04-16 08:42:32 51°14.485 2°49.282 16.0991 0.008455 0.047837 -1.766697
2008-04-16 08:42:37 51°14.487 2°49.287 16.1189 0.008455 0.047838 -1.766697
2008-04-16 08:42:41 51°14.488 2°49.291 16.1189 0.008455 0.047839 -1.766697
2008-04-16 08:42:47 51°14.49 2°49.298 16.1286 0.008455 0.047839 -1.766697
2008-04-16 08:42:52 51°14.492 2°49.303 16.1226 0.008455 0.047839 -1.766697
2008-04-16 08:42:56 51°14.494 2°49.307 16.111 0.008455 0.047839 -1.801521
2008-04-16 08:43:01 51°14.496 2°49.312 16.1161 0.008455 0.04784 -1.801521
2008-04-16 08:43:06 51°14.497 2°49.316 16.1155 0.008352 0.047329 -1.766697
2008-04-16 08:43:12 51°14.5 2°49.322 16.1154 0.008455 0.047842 -1.766697
2008-04-16 08:43:17 51°14.502 2°49.327 16.1046 0.008455 0.047842 -1.766697
2008-04-16 08:43:21 51°14.504 2°49.331 16.1199 0.008455 0.047843 -1.766697
2008-04-16 08:43:26 51°14.505 2°49.336 16.1174 0.008455 0.047843 -1.766697
2008-04-16 08:43:31 51°14.507 2°49.341 16.1139 0.008455 0.047844 -1.801521
2008-04-16 08:43:37 51°14.51 2°49.346 16.1333 0.008455 0.047845 -1.801521
2008-04-16 08:43:41 51°14.512 2°49.35 16.1191 0.008455 0.047846 -1.766697
2008-04-16 08:43:47 51°14.514 2°49.355 16.1177 0.008455 0.047846 -1.766697
2008-04-16 08:43:52 51°14.516 2°49.36 16.1125 0.008455 0.047846 -1.766697
2008-04-16 08:43:57 51°14.519 2°49.365 16.1354 0.008352 0.047334 -1.766697
2008-04-16 08:44:01 51°14.521 2°49.368 16.1304 0.008455 0.047847 -1.766697
2008-04-16 08:44:07 51°14.524 2°49.374 16.1187 0.008455 0.047848 -1.766697
2008-04-16 08:44:12 51°14.526 2°49.379 16.1363 0.008455 0.047849 -1.766697
2008-04-16 08:44:16 51°14.528 2°49.383 16.1261 0.008455 0.047849 -1.766697
2008-04-16 08:44:21 51°14.53 2°49.388 16.1205 0.008455 0.04785 -1.766697
2008-04-16 08:44:27 51°14.533 2°49.394 16.1241 0.008352 0.047339 -1.766697
2008-04-16 08:44:32 51°14.536 2°49.4 16.1336 0.008352 0.047339 -1.766697
2008-04-16 08:44:36 51°14.538 2°49.404 16.1264 0.008455 0.047853 -1.766697
2008-04-16 08:44:41 51°14.54 2°49.409 16.136 0.008455 0.047854 -1.766697
2008-04-16 08:44:47 51°14.543 2°49.415 16.1293 0.008352 0.047342 -1.766697
2008-04-16 08:44:52 51°14.545 2°49.421 16.1407 0.008352 0.047342 -1.766697
2008-04-16 08:44:56 51°14.547 2°49.425 16.1384 0.008455 0.047855 -1.801521
2008-04-16 08:45:01 51°14.549 2°49.431 16.1362 0.008455 0.047856 -1.766697
2008-04-16 08:45:06 51°14.552 2°49.436 16.1419 0.008455 0.047856 -1.766697
2008-04-16 08:45:12 51°14.555 2°49.443 16.1398 0.008455 0.047857 -1.801521
2008-04-16 08:45:16 51°14.556 2°49.448 16.1346 0.008455 0.047857 -1.801521
2008-04-16 08:45:21 51°14.559 2°49.453 16.1441 0.008352 0.047345 -1.801521
2008-04-16 08:45:26 51°14.561 2°49.459 16.1291 0.008455 0.047858 -1.766697
2008-04-16 08:45:31 51°14.563 2°49.465 16.1377 0.008352 0.047347 -1.766697
2008-04-16 08:45:37 51°14.565 2°49.472 16.1455 0.008352 0.047347 -1.766697
2008-04-16 08:45:41 51°14.567 2°49.477 16.1476 0.008455 0.04786 -1.766697
2008-04-16 08:45:47 51°14.57 2°49.484 16.1388 0.008455 0.04786 -1.766697
2008-04-16 08:45:52 51°14.572 2°49.49 16.1419 0.008455 0.047861 -1.766697
2008-04-16 08:45:56 51°14.573 2°49.495 16.1644 0.008352 0.047349 -1.766697
2008-04-16 08:46:01 51°14.575 2°49.5 16.1402 0.008455 0.047863 -1.766697
2008-04-16 08:46:07 51°14.577 2°49.508 16.1501 0.008455 0.047864 -1.766697
2008-04-16 08:46:12 51°14.579 2°49.514 16.1509 0.008455 0.047865 -1.766697
2008-04-16 08:46:16 51°14.581 2°49.519 16.1471 0.008455 0.047865 -1.766697
2008-04-16 08:46:21 51°14.583 2°49.525 16.1584 0.008352 0.047352 -1.766697
2008-04-16 08:46:27 51°14.585 2°49.533 16.1526 0.008455 0.047865 -1.766697
2008-04-16 08:46:32 51°14.587 2°49.539 16.1561 0.008455 0.047866 -1.766697
2008-04-16 08:46:36 51°14.588 2°49.544 16.148 0.008352 0.047354 -1.801521
2008-04-16 08:46:41 51°14.59 2°49.55 16.1519 0.008455 0.047867 -1.801521
2008-04-16 08:46:47 51°14.593 2°49.557 16.15 0.008455 0.047868 -1.766697
2008-04-16 08:46:52 51°14.594 2°49.564 16.1509 0.008455 0.047868 -1.766697
2008-04-16 08:46:56 51°14.596 2°49.569 16.1609 0.008455 0.047869 -1.801521
2008-04-16 08:47:01 51°14.598 2°49.575 16.1581 0.008352 0.047357 -1.801521
2008-04-16 08:47:07 51°14.6 2°49.582 16.1705 0.008352 0.047357 -1.766697
2008-04-16 08:47:12 51°14.602 2°49.589 16.1663 0.008352 0.047358 -1.801521
2008-04-16 08:47:16 51°14.603 2°49.594 16.1654 0.008352 0.047358 -1.801521
2008-04-16 08:47:21 51°14.605 2°49.6 16.1666 0.008352 0.047359 -1.766697
2008-04-16 08:47:26 51°14.607 2°49.606 16.1625 0.008352 0.047359 -1.801521
2008-04-16 08:47:32 51°14.609 2°49.614 16.17 0.008352 0.04736 -1.766697
2008-04-16 08:47:36 51°14.611 2°49.619 16.1634 0.008455 0.047873 -1.766697
2008-04-16 08:47:41 51°14.612 2°49.625 16.1774 0.008455 0.047874 -1.766697
2008-04-16 08:47:47 51°14.615 2°49.633 16.1656 0.008455 0.047874 -1.766697
2008-04-16 08:47:52 51°14.616 2°49.639 16.1646 0.008352 0.047362 -1.766697
2008-04-16 08:47:56 51°14.618 2°49.644 16.1615 0.008352 0.047363 -1.801521
2008-04-16 08:48:01 51°14.62 2°49.65 16.1758 0.008455 0.047876 -1.766697
2008-04-16 08:48:07 51°14.622 2°49.658 16.1683 0.008352 0.047364 -1.766697
2008-04-16 08:48:12 51°14.624 2°49.664 16.1678 0.008352 0.047364 -1.766697
2008-04-16 08:48:17 51°14.625 2°49.671 16.1841 0.008352 0.047364 -1.766697
2008-04-16 08:48:22 51°14.627 2°49.677 16.1734 0.008352 0.047365 -1.801521
2008-04-16 08:48:27 51°14.628 2°49.684 16.1811 0.008352 0.047366 -1.766697
2008-04-16 08:48:32 51°14.63 2°49.69 16.1632 0.008352 0.047367 -1.766697
2008-04-16 08:48:36 51°14.631 2°49.695 16.1881 0.008455 0.04788 -1.766697
2008-04-16 08:48:41 51°14.633 2°49.701 16.1779 0.008455 0.047881 -1.766697
2008-04-16 08:48:47 51°14.635 2°49.709 16.1769 0.008455 0.047881 -1.766697
2008-04-16 08:48:51 51°14.637 2°49.714 16.1741 0.008455 0.047883 -1.766697
2008-04-16 08:48:57 51°14.639 2°49.722 16.1911 0.008352 0.04737 -1.801521
2008-04-16 08:49:02 51°14.641 2°49.728 16.1899 0.008352 0.04737 -1.766697
2008-04-16 08:49:07 51°14.642 2°49.735 16.1831 0.008352 0.047372 -1.801521
2008-04-16 08:49:12 51°14.644 2°49.742 16.1841 0.008455 0.047885 -1.766697
2008-04-16 08:49:16 51°14.645 2°49.747 16.1889 0.008455 0.047885 -1.766697
2008-04-16 08:49:21 51°14.647 2°49.753 16.183 0.008455 0.047886 -1.766697
2008-04-16 08:49:27 51°14.649 2°49.761 16.2022 0.008352 0.047374 -1.766697
2008-04-16 08:49:32 51°14.651 2°49.767 16.1812 0.008455 0.047887 -1.766697
2008-04-16 08:49:37 51°14.653 2°49.774 16.1937 0.008455 0.047888 -1.766697
2008-04-16 08:49:41 51°14.654 2°49.779 16.203 0.008455 0.047889 -1.801521
2008-04-16 08:49:46 51°14.656 2°49.786 16.1955 0.008455 0.047889 -1.801521
2008-04-16 08:49:52 51°14.658 2°49.794 16.2008 0.008352 0.047377 -1.766697
2008-04-16 08:49:57 51°14.66 2°49.8 16.1951 0.008455 0.04789 -1.766697
2008-04-16 08:50:01 51°14.661 2°49.805 16.1986 0.008352 0.047378 -1.766697
2008-04-16 08:50:07 51°14.663 2°49.813 16.1907 0.008455 0.047893 -1.801521
2008-04-16 08:50:12 51°14.665 2°49.82 16.1944 0.008455 0.047893 -1.766697
2008-04-16 08:50:16 51°14.666 2°49.825 16.1946 0.008455 0.047893 -1.766697
2008-04-16 08:50:21 51°14.668 2°49.832 16.2033 0.008352 0.04738 -1.801521
2008-04-16 08:50:27 51°14.67 2°49.84 16.1939 0.008455 0.047895 -1.766697
2008-04-16 08:50:32 51°14.672 2°49.846 16.2065 0.008352 0.047382 -1.766697
2008-04-16 08:50:37 51°14.673 2°49.853 16.2069 0.008352 0.047382 -1.766697
2008-04-16 08:50:41 51°14.675 2°49.858 16.2014 0.008352 0.047383 -1.766697
2008-04-16 08:50:47 51°14.677 2°49.866 16.2135 0.008352 0.047383 -1.766697
2008-04-16 08:50:52 51°14.679 2°49.873 16.2004 0.008352 0.047384 -1.766697
2008-04-16 08:50:56 51°14.68 2°49.878 16.209 0.008352 0.047385 -1.766697
2008-04-16 08:51:01 51°14.682 2°49.884 16.2118 0.008352 0.047385 -1.766697
2008-04-16 08:51:07 51°14.684 2°49.893 16.2197 0.008352 0.047386 -1.766697
2008-04-16 08:51:12 51°14.686 2°49.899 16.213 0.008352 0.047388 -1.766697
2008-04-16 08:51:16 51°14.687 2°49.904 16.2192 0.008352 0.047388 -1.766697
2008-04-16 08:51:21 51°14.689 2°49.911 16.2102 0.008352 0.047388 -1.766697
2008-04-16 08:51:27 51°14.692 2°49.919 16.2103 0.008352 0.047389 -1.766697
2008-04-16 08:51:32 51°14.693 2°49.926 16.2137 0.008352 0.04739 -1.766697
2008-04-16 08:51:36 51°14.695 2°49.931 16.218 0.008455 0.047904 -1.766697
2008-04-16 08:51:41 51°14.697 2°49.938 16.2255 0.008352 0.047392 -1.766697
2008-04-16 08:51:47 51°14.699 2°49.946 16.2128 0.008352 0.047392 -1.766697
2008-04-16 08:51:52 51°14.7 2°49.952 16.2142 0.008352 0.047392 -1.766697
2008-04-16 08:51:56 51°14.702 2°49.958 16.2137 0.008352 0.047393 -1.766697
2008-04-16 08:52:01 51°14.704 2°49.964 16.2242 0.008352 0.047394 -1.766697
2008-04-16 08:52:06 51°14.706 2°49.971 16.2214 0.008352 0.047395 -1.766697
2008-04-16 08:52:12 51°14.708 2°49.979 16.2225 0.008352 0.047395 -1.766697
2008-04-16 08:52:17 51°14.709 2°49.986 16.2176 0.008352 0.047395 -1.766697
2008-04-16 08:52:21 51°14.711 2°49.991 16.2231 0.008352 0.047396 -1.801521
2008-04-16 08:52:26 51°14.713 2°49.997 16.232 0.008352 0.047396 -1.766697
2008-04-16 08:52:31 51°14.715 2°50.004 16.2399 0.008352 0.047397 -1.766697
2008-04-16 08:52:37 51°14.717 2°50.012 16.2271 0.008352 0.047398 -1.766697
2008-04-16 08:52:42 51°14.718 2°50.019 16.2251 0.008352 0.047398 -1.766697
2008-04-16 08:52:47 51°14.72 2°50.025 16.2348 0.008352 0.047398 -1.766697
2008-04-16 08:52:52 51°14.722 2°50.032 16.2336 0.008352 0.047399 -1.766697
2008-04-16 08:52:57 51°14.724 2°50.038 16.231 0.008455 0.047914 -1.801521
2008-04-16 08:53:01 51°14.725 2°50.043 16.2289 0.008352 0.047401 -1.766697
2008-04-16 08:53:07 51°14.727 2°50.051 16.234 0.008352 0.047402 -1.766697
2008-04-16 08:53:12 51°14.729 2°50.058 16.2317 0.008352 0.047403 -1.766697
2008-04-16 08:53:17 51°14.731 2°50.064 16.2331 0.008352 0.047403 -1.766697
2008-04-16 08:53:22 51°14.733 2°50.071 16.2299 0.008352 0.047403 -1.766697
2008-04-16 08:53:27 51°14.735 2°50.077 16.2323 0.008352 0.047404 -1.766697
2008-04-16 08:53:32 51°14.737 2°50.084 16.2385 0.008352 0.047405 -1.766697
2008-04-16 08:53:36 51°14.738 2°50.089 16.235 0.008352 0.047406 -1.801521
2008-04-16 08:53:41 51°14.74 2°50.096 16.2346 0.008352 0.047407 -1.766697
2008-04-16 08:53:47 51°14.742 2°50.103 16.2371 0.008352 0.047407 -1.766697
2008-04-16 08:53:52 51°14.744 2°50.11 16.2394 0.008352 0.047408 -1.766697
2008-04-16 08:53:56 51°14.732 2°54.92 15.8116 0.008558 0.047655 -1.801521
2008-04-16 08:53:56 51°14.745 2°50.115 16.2386 0.008352 0.047408 -1.766697
2008-04-16 08:53:56 51°14.732 2°54.92 15.8141 0.008558 0.047655 -1.801521
2008-04-16 08:53:56 51°14.732 2°54.92 15.8106 0.008558 0.047657 -1.801521
2008-04-16 08:53:56 51°14.732 2°54.92 15.813 0.008558 0.047654 -1.801521
2008-04-16 08:53:56 51°14.732 2°54.92 15.8098 0.008558 0.047656 -1.801521
2008-04-16 08:53:56 51°14.732 2°54.92 15.8106 0.008558 0.047657 -1.801521
2008-04-16 08:53:56 51°14.732 2°54.92 15.8121 0.008558 0.047655 -1.801521
2008-04-16 08:53:56 51°14.732 2°54.92 15.8097 0.008558 0.047656 -1.766697
2008-04-16 08:53:56 51°14.732 2°54.92 15.8092 0.008558 0.047656 -1.801521
2008-04-16 08:54:01 51°14.747 2°50.122 16.2433 0.008352 0.047409 -1.766697
2008-04-16 08:54:07 51°14.75 2°50.13 16.2387 0.008352 0.04741 -1.801521
2008-04-16 08:54:12 51°14.751 2°50.136 16.2415 0.008352 0.047411 -1.801521
2008-04-16 08:54:17 51°14.753 2°50.143 16.2437 0.008352 0.047411 -1.801521
2008-04-16 08:54:21 51°14.755 2°50.148 16.2382 0.008352 0.047411 -1.766697
2008-04-16 08:54:27 51°14.757 2°50.156 16.2456 0.008352 0.047412 -1.766697
2008-04-16 08:54:32 51°14.759 2°50.163 16.2423 0.008352 0.047413 -1.766697
2008-04-16 08:54:36 51°14.76 2°50.168 16.2435 0.008352 0.047414 -1.766697
2008-04-16 08:54:41 51°14.762 2°50.175 16.2472 0.008455 0.047929 -1.766697
2008-04-16 08:54:47 51°14.764 2°50.183 16.262 0.008455 0.047929 -1.766697
2008-04-16 08:54:52 51°14.766 2°50.189 16.2467 0.008352 0.047416 -1.801521
2008-04-16 08:54:57 51°14.768 2°50.196 16.2531 0.008352 0.047417 -1.766697
2008-04-16 08:55:01 51°14.769 2°50.202 16.2518 0.008352 0.047418 -1.801521
2008-04-16 08:55:07 51°14.771 2°50.21 16.2555 0.008352 0.047419 -1.766697
2008-04-16 08:55:12 51°14.773 2°50.216 16.3916 0.008352 0.04742 -1.801521
2008-04-16 08:55:16 51°14.774 2°50.222 16.5632 0.008352 0.04742 -1.766697
2008-04-16 08:55:21 51°14.776 2°50.228 16.6809 0.008352 0.04742 -1.766697
2008-04-16 08:55:27 51°14.778 2°50.236 16.6329 0.008352 0.047421 -1.766697
2008-04-16 08:55:31 51°14.78 2°50.242 16.6071 0.008352 0.047422 -1.766697
2008-04-16 08:55:36 51°14.782 2°50.248 16.5716 0.008352 0.047423 -1.801521
2008-04-16 08:55:41 51°14.783 2°50.255 16.5551 0.008352 0.047423 -1.766697
2008-04-16 08:55:47 51°14.786 2°50.263 16.5511 0.008352 0.047423 -1.766697
2008-04-16 08:55:52 51°14.788 2°50.27 16.5364 0.008352 0.047425 -1.766697
2008-04-16 08:55:56 51°14.789 2°50.275 16.5406 0.008352 0.047425 -1.766697
2008-04-16 08:56:01 51°14.791 2°50.282 16.5423 0.008352 0.047426 -1.766697
2008-04-16 08:56:07 51°14.793 2°50.29 16.5263 0.008352 0.047427 -1.766697
2008-04-16 08:56:12 51°14.795 2°50.297 16.5333 0.008352 0.047427 -1.766697
2008-04-16 08:56:17 51°14.797 2°50.303 16.548 0.008352 0.047427 -1.766697
2008-04-16 08:56:21 51°14.799 2°50.309 16.5278 0.008352 0.047429 -1.801521
2008-04-16 08:56:27 51°14.801 2°50.317 16.535 0.008352 0.04743 -1.766697
2008-04-16 08:56:32 51°14.802 2°50.324 16.529 0.008352 0.04743 -1.766697
2008-04-16 08:56:37 51°14.804 2°50.33 16.5517 0.008352 0.047432 -1.766697
2008-04-16 08:56:41 51°14.806 2°50.336 16.5273 0.008352 0.047433 -1.766697
2008-04-16 08:56:46 51°14.807 2°50.342 16.5477 0.008352 0.047433 -1.766697
2008-04-16 08:56:52 51°14.81 2°50.35 16.5247 0.008352 0.047433 -1.766697
2008-04-16 08:56:57 51°14.812 2°50.357 16.543 0.008352 0.047435 -1.766697
2008-04-16 08:57:01 51°14.813 2°50.362 16.5308 0.008352 0.047435 -1.766697
2008-04-16 08:57:07 51°14.815 2°50.37 16.5288 0.008352 0.047436 -1.766697
2008-04-16 08:57:11 51°14.817 2°50.375 16.5262 0.008352 0.047437 -1.766697
2008-04-16 08:57:17 51°14.819 2°50.383 16.524 0.008352 0.047438 -1.766697
2008-04-16 08:57:21 51°14.82 2°50.389 16.5246 0.008352 0.047438 -1.766697
2008-04-16 08:57:27 51°14.822 2°50.397 16.5276 0.008352 0.047439 -1.766697
2008-04-16 08:57:31 51°14.824 2°50.402 16.5243 0.008352 0.047439 -1.766697
2008-04-16 08:57:37 51°14.826 2°50.41 16.5383 0.008352 0.04744 -1.766697
2008-04-16 08:57:42 51°14.827 2°50.417 16.5291 0.008352 0.047441 -1.801521
2008-04-16 08:57:47 51°14.829 2°50.423 16.5276 0.008352 0.047441 -1.801521
2008-04-16 08:57:52 51°14.831 2°50.43 16.5273 0.008352 0.047442 -1.801521
2008-04-16 08:57:56 51°14.833 2°50.435 16.5291 0.008352 0.047443 -1.766697
2008-04-16 08:58:01 51°14.835 2°50.442 16.5277 0.008352 0.047444 -1.766697
2008-04-16 08:58:07 51°14.837 2°50.45 16.5312 0.008352 0.047445 -1.801521
2008-04-16 08:58:12 51°14.838 2°50.457 16.5352 0.008352 0.047446 -1.801521
2008-04-16 08:58:17 51°14.84 2°50.463 16.5309 0.008352 0.047446 -1.801521
2008-04-16 08:58:22 51°14.842 2°50.47 16.5465 0.008352 0.047447 -1.801521
2008-04-16 08:58:28 51°14.844 2°50.478 16.5315 0.008352 0.047447 -1.766697
2008-04-16 08:58:32 51°14.846 2°50.483 16.5369 0.008352 0.047448 -1.766697
2008-04-16 08:58:37 51°14.847 2°50.49 16.5536 0.008352 0.047449 -1.766697
2008-04-16 08:58:41 51°14.849 2°50.495 16.5335 0.008352 0.04745 -1.766697
2008-04-16 08:58:47 51°14.851 2°50.503 16.5385 0.008352 0.04745 -1.766697
2008-04-16 08:58:52 51°14.853 2°50.51 16.5338 0.008352 0.047451 -1.766697
2008-04-16 08:58:56 51°14.854 2°50.515 16.5414 0.008352 0.047452 -1.766697
2008-04-16 08:59:01 51°14.856 2°50.522 16.5367 0.008352 0.047453 -1.766697
2008-04-16 08:59:06 51°14.858 2°50.529 16.5517 0.008352 0.047454 -1.766697
2008-04-16 08:59:12 51°14.86 2°50.537 16.5385 0.008352 0.047455 -1.766697
2008-04-16 08:59:17 51°14.862 2°50.544 16.5417 0.008352 0.047455 -1.766697
2008-04-16 08:59:22 51°14.864 2°50.55 16.5386 0.008352 0.047456 -1.766697
2008-04-16 08:59:27 51°14.865 2°50.557 16.5591 0.008352 0.047457 -1.766697
2008-04-16 08:59:32 51°14.867 2°50.564 16.541 0.008352 0.047457 -1.766697
2008-04-16 08:59:36 51°14.868 2°50.57 16.5545 0.008352 0.047458 -1.766697
2008-04-16 08:59:41 51°14.87 2°50.576 16.5498 0.008352 0.047459 -1.766697
2008-04-16 08:59:47 51°14.873 2°50.584 16.5512 0.008352 0.047459 -1.766697
2008-04-16 08:59:51 51°14.874 2°50.59 16.5547 0.008352 0.04746 -1.801521
2008-04-16 08:59:57 51°14.876 2°50.598 16.5501 0.008352 0.047461 -1.801521
2008-04-16 09:00:02 51°14.878 2°50.605 16.5555 0.008352 0.047462 -1.801521
2008-04-16 09:00:07 51°14.88 2°50.611 16.5558 0.008352 0.047462 -1.766697
2008-04-16 09:00:12 51°14.881 2°50.618 16.5553 0.008352 0.047463 -1.766697
2008-04-16 09:00:17 51°14.883 2°50.625 16.5583 0.008352 0.047463 -1.766697
2008-04-16 09:00:22 51°14.885 2°50.631 16.5592 0.008352 0.047463 -1.766697
2008-04-16 09:00:27 51°14.887 2°50.638 16.5547 0.008352 0.047464 -1.766697
2008-04-16 09:00:32 51°14.889 2°50.645 16.5526 0.008352 0.047465 -1.766697
2008-04-16 09:00:37 51°14.891 2°50.652 16.5549 0.008352 0.047466 -1.766697
2008-04-16 09:00:41 51°14.892 2°50.657 16.5533 0.008352 0.047467 -1.766697
2008-04-16 09:00:47 51°14.894 2°50.666 16.5548 0.008352 0.047468 -1.766697